Darstellungsparameter: Aktuell verwendete Einstellungen:
Skalierung der Graphiken ... ?
xyx+y,   Skalierungsfaktor:      Skalierung: Modus: x, Faktor: 1
Darstellungszeitraum ... ?
Vom - - bis: - -   Zeitraum: 18.03.2020 - 24.03.2020
Min/Max/Avg-Anzeige ... ?
Zeige MMA aktuell
Zeige MMA Monat
Zeige MMA alles
Zeige --A aktuell
Zeige --A Monat
Zeige --A alles
Keine MMA-Anzeige
MMA:
Keine MMA-Graphiken
MMA-Basis: 18.03.2020 - 24.03.2020
Quicknavigation für Darstellung... ?
Tage:      1T, 2T, 3T, 5T -1T -2T -3T -5T +1T +2T +3T +5T
Wochen: 1W, 2W, 3W -1W -2W -3W +1W +2W +3W
Monate: 1M, 3M, 6M -1M -3M -6M +1M +3M +6M
Jahre:    1J, 3J, 5J, 10J -1J -3J -5J -10J +1J +3J +5J +10J
Nutze für die Darstellung ... ?
Originaldaten oder Mittelwerte auf ...
Stundenbasis Tagesbasis Wochenbasis
Monatsbasis Jahresbasis      Datenbasis: Original-Daten
Darstellen als:
Statistik (Auto) Statistik J:M      Darstellung:
Zur Graphik,    zurück zur Übersicht aller Sensoren.
 
Tabellarische Datenbersicht: ?
 
Sensor: Nr:Datum:Temp:Feuchte:
Aussen-T/F 1 18-03-2020 00:09:17 5.9 C 43 %
2 18-03-2020 00:19:17 5.8 C 44 %
3 18-03-2020 00:29:17 5.9 C 44 %
4 18-03-2020 00:39:17 5.8 C 44 %
5 18-03-2020 00:49:17 6 C 44 %
6 18-03-2020 00:59:17 6 C 43 %
7 18-03-2020 01:09:17 5.7 C 44 %
8 18-03-2020 01:19:17 5.6 C 44 %
9 18-03-2020 01:29:17 5.3 C 44 %
10 18-03-2020 01:39:17 5.6 C 45 %
11 18-03-2020 01:49:17 5.3 C 45 %
12 18-03-2020 01:59:17 5.6 C 46 %
13 18-03-2020 02:09:17 5.1 C 44 %
14 18-03-2020 02:19:17 4.8 C 45 %
15 18-03-2020 02:29:17 4.8 C 45 %
16 18-03-2020 02:39:17 4.6 C 46 %
17 18-03-2020 02:49:18 4.3 C 46 %
18 18-03-2020 02:59:18 4.3 C 46 %
19 18-03-2020 03:09:18 4.2 C 46 %
20 18-03-2020 03:19:17 4.2 C 46 %
21 18-03-2020 03:29:17 4.1 C 46 %
22 18-03-2020 03:39:17 4 C 46 %
23 18-03-2020 03:49:17 3.8 C 47 %
24 18-03-2020 03:59:17 3.8 C 47 %
25 18-03-2020 04:09:17 3.8 C 47 %
Sensor: Nr:Datum:Temp:Feuchte:
Aussen-T/F 26 18-03-2020 04:19:18 3.8 C 47 %
27 18-03-2020 04:29:18 3.7 C 47 %
28 18-03-2020 04:39:18 3.7 C 47 %
29 18-03-2020 04:49:18 3.6 C 47 %
30 18-03-2020 04:59:18 3.6 C 47 %
31 18-03-2020 05:09:18 3.7 C 48 %
32 18-03-2020 05:19:18 3.8 C 48 %
33 18-03-2020 05:29:18 3.3 C 47 %
34 18-03-2020 05:39:18 3.2 C 47 %
35 18-03-2020 05:49:18 3.3 C 47 %
36 18-03-2020 05:59:18 3.1 C 47 %
37 18-03-2020 06:09:18 2.9 C 48 %
38 18-03-2020 06:19:17 3.3 C 47 %
39 18-03-2020 06:29:18 3.1 C 47 %
40 18-03-2020 06:39:18 3.1 C 47 %
41 18-03-2020 06:49:17 3.1 C 47 %
42 18-03-2020 06:59:18 3.6 C 47 %
43 18-03-2020 07:09:18 3.5 C 47 %
44 18-03-2020 07:19:17 3.4 C 47 %
45 18-03-2020 07:29:17 3.7 C 47 %
46 18-03-2020 07:39:17 3.9 C 47 %
47 18-03-2020 07:49:18 4 C 46 %
48 18-03-2020 07:59:18 4.9 C 46 %
49 18-03-2020 08:09:18 4.6 C 46 %
50 18-03-2020 08:19:18 4.5 C 46 %
Sensor: Nr:Datum:Temp:Feuchte:
Aussen-T/F 51 18-03-2020 08:29:18 4.7 C 46 %
52 18-03-2020 08:39:17 5 C 45 %
53 18-03-2020 08:49:18 5.3 C 46 %
54 18-03-2020 08:59:18 5.6 C 46 %
55 18-03-2020 09:09:17 6.7 C 45 %
56 18-03-2020 09:19:17 7.1 C 45 %
57 18-03-2020 09:29:17 8.5 C 45 %
58 18-03-2020 09:39:17 9.7 C 41 %
59 18-03-2020 09:49:18 10.5 C 40 %
60 18-03-2020 09:59:18 11 C 38 %
61 18-03-2020 10:09:18 11.1 C 38 %
62 18-03-2020 10:19:18 11.6 C 38 %
63 18-03-2020 10:29:18 11.6 C 37 %
64 18-03-2020 10:39:18 11.7 C 38 %
65 18-03-2020 10:49:18 12 C 36 %
66 18-03-2020 10:59:18 12.2 C 35 %
67 18-03-2020 11:09:18 12.7 C 35 %
68 18-03-2020 11:19:18 12.8 C 34 %
69 18-03-2020 11:29:18 13.3 C 34 %
70 18-03-2020 11:39:18 13.9 C 33 %
71 18-03-2020 11:49:17 14.7 C 32 %
72 18-03-2020 11:59:17 15.3 C 30 %
73 18-03-2020 12:09:18 15.8 C 30 %
74 18-03-2020 12:19:17 16.6 C 29 %
75 18-03-2020 12:29:18 17 C 27 %
Sensor: Nr:Datum:Temp:Feuchte:
Aussen-T/F 76 18-03-2020 12:39:18 17.8 C 26 %
77 18-03-2020 12:49:17 19.1 C 25 %
78 18-03-2020 12:59:17 19.8 C 20 %
79 18-03-2020 13:09:17 21 C 20 %
80 18-03-2020 13:19:17 21.2 C 20 %
81 18-03-2020 13:29:17 19.5 C 20 %
82 18-03-2020 13:39:18 17.7 C 20 %
83 18-03-2020 13:49:17 16.6 C 22 %
84 18-03-2020 13:59:17 16 C 22 %
85 18-03-2020 14:09:17 17.6 C 21 %
86 18-03-2020 14:19:17 16.7 C 20 %
87 18-03-2020 14:29:17 17.9 C 20 %
88 18-03-2020 14:39:18 18.5 C 20 %
89 18-03-2020 14:49:17 17.4 C 20 %
90 18-03-2020 14:59:17 17.4 C 20 %
91 18-03-2020 15:09:17 20.6 C 20 %
92 18-03-2020 15:19:18 17.9 C 20 %
93 18-03-2020 15:29:18 18.2 C 20 %
94 18-03-2020 15:39:18 17.7 C 20 %
95 18-03-2020 15:49:17 16.9 C 20 %
96 18-03-2020 15:59:17 16.7 C 21 %
97 18-03-2020 16:09:17 16.4 C 21 %
98 18-03-2020 16:19:17 16.4 C 22 %
99 18-03-2020 16:29:17 16.4 C 20 %
100 18-03-2020 16:39:17 16.5 C 20 %
Sensor: Nr:Datum:Temp:Feuchte:
Aussen-T/F 101 18-03-2020 16:49:18 16.2 C 21 %
102 18-03-2020 16:59:18 16.1 C 21 %
103 18-03-2020 17:09:17 16 C 21 %
104 18-03-2020 17:19:17 16 C 21 %
105 18-03-2020 17:29:17 15.7 C 22 %
106 18-03-2020 17:39:18 16 C 20 %
107 18-03-2020 17:49:17 16.3 C 20 %
108 18-03-2020 17:59:17 15.8 C 22 %
109 18-03-2020 18:09:17 15.4 C 22 %
110 18-03-2020 18:19:17 14.7 C 26 %
111 18-03-2020 18:29:17 13.7 C 26 %
112 18-03-2020 18:39:17 13.3 C 28 %
113 18-03-2020 18:49:17 12.7 C 30 %
114 18-03-2020 18:59:17 12 C 31 %
115 18-03-2020 19:09:17 11.7 C 32 %
116 18-03-2020 19:19:18 11.5 C 32 %
117 18-03-2020 19:29:18 10.5 C 34 %
118 18-03-2020 19:39:18 10.9 C 34 %
119 18-03-2020 19:49:18 11.1 C 34 %
120 18-03-2020 19:59:18 10.9 C 35 %
121 18-03-2020 20:09:18 10.6 C 35 %
122 18-03-2020 20:19:17 10.4 C 35 %
123 18-03-2020 20:29:17 10.4 C 35 %
124 18-03-2020 20:39:18 10 C 36 %
125 18-03-2020 20:49:17 9.7 C 37 %
Sensor: Nr:Datum:Temp:Feuchte:
Aussen-T/F 126 18-03-2020 20:59:17 9.7 C 37 %
127 18-03-2020 21:09:18 9.7 C 37 %
128 18-03-2020 21:19:17 9.6 C 37 %
129 18-03-2020 21:29:17 9.4 C 37 %
130 18-03-2020 21:39:17 9 C 37 %
131 18-03-2020 21:49:17 8.7 C 38 %
132 18-03-2020 21:59:17 8.4 C 39 %
133 18-03-2020 22:09:17 8.2 C 39 %
134 18-03-2020 22:19:17 8.1 C 40 %
135 18-03-2020 22:29:17 8 C 40 %
136 18-03-2020 22:39:17 8 C 40 %
137 18-03-2020 22:49:17 8.1 C 40 %
138 18-03-2020 22:59:17 8.2 C 40 %
139 18-03-2020 23:09:18 8.3 C 40 %
140 18-03-2020 23:19:17 8.1 C 40 %
141 18-03-2020 23:29:17 8 C 40 %
142 18-03-2020 23:39:18 8 C 40 %
143 18-03-2020 23:49:18 8.4 C 40 %
144 18-03-2020 23:59:18 8.9 C 40 %
145 19-03-2020 00:09:17 8.9 C 39 %
146 19-03-2020 00:19:18 8.9 C 38 %
147 19-03-2020 00:29:18 9 C 38 %
148 19-03-2020 00:39:18 9 C 38 %
149 19-03-2020 00:49:17 9.1 C 38 %
150 19-03-2020 00:59:17 9.1 C 38 %
Sensor: Nr:Datum:Temp:Feuchte:
Aussen-T/F 151 19-03-2020 01:09:18 9 C 38 %
152 19-03-2020 01:19:17 9.1 C 38 %
153 19-03-2020 01:29:17 9 C 38 %
154 19-03-2020 01:39:17 9 C 38 %
155 19-03-2020 01:49:17 8.9 C 38 %
156 19-03-2020 01:59:17 8.8 C 39 %
157 19-03-2020 02:09:18 8.7 C 39 %
158 19-03-2020 02:19:17 8.7 C 39 %
159 19-03-2020 02:29:17 8.6 C 39 %
160 19-03-2020 02:39:17 8.5 C 39 %
161 19-03-2020 02:49:18 8.5 C 39 %
162 19-03-2020 02:59:18 8.5 C 39 %
163 19-03-2020 03:09:18 8.5 C 39 %
164 19-03-2020 03:19:18 8.6 C 39 %
165 19-03-2020 03:29:18 8.5 C 39 %
166 19-03-2020 03:39:17 8.5 C 39 %
167 19-03-2020 03:49:18 8.4 C 39 %
168 19-03-2020 03:59:18 8.4 C 40 %
169 19-03-2020 04:09:18 8.4 C 40 %
170 19-03-2020 04:19:17 8.5 C 40 %
171 19-03-2020 04:29:17 8.5 C 39 %
172 19-03-2020 04:39:17 8.5 C 39 %
173 19-03-2020 04:49:18 8.5 C 39 %
174 19-03-2020 04:59:18 8.5 C 39 %
175 19-03-2020 05:09:18 8.6 C 39 %
Sensor: Nr:Datum:Temp:Feuchte:
Aussen-T/F 176 19-03-2020 05:19:18 8.9 C 38 %
177 19-03-2020 05:29:18 8.7 C 39 %
178 19-03-2020 05:39:18 8.6 C 39 %
179 19-03-2020 05:49:17 8.5 C 39 %
180 19-03-2020 05:59:18 8.4 C 39 %
181 19-03-2020 06:09:18 8.4 C 39 %
182 19-03-2020 06:19:17 8.3 C 40 %
183 19-03-2020 06:29:17 8.2 C 39 %
184 19-03-2020 06:39:17 8.1 C 40 %
185 19-03-2020 06:49:17 8.1 C 40 %
186 19-03-2020 06:59:17 8.2 C 40 %
187 19-03-2020 07:09:17 8.2 C 40 %
188 19-03-2020 07:19:17 8.5 C 40 %
189 19-03-2020 07:29:17 8.7 C 39 %
190 19-03-2020 07:39:18 8.9 C 39 %
191 19-03-2020 07:49:18 9.1 C 38 %
192 19-03-2020 07:59:18 9.4 C 38 %
193 19-03-2020 08:09:18 9.7 C 38 %
194 19-03-2020 08:19:17 9.9 C 37 %
195 19-03-2020 08:29:17 9.9 C 37 %
196 19-03-2020 08:39:17 10.5 C 36 %
197 19-03-2020 08:49:18 10.4 C 36 %
198 19-03-2020 08:59:18 10.2 C 36 %
199 19-03-2020 09:09:17 11.2 C 35 %
200 19-03-2020 09:19:17 11.7 C 35 %
Sensor: Nr:Datum:Temp:Feuchte:
Aussen-T/F 201 19-03-2020 09:29:17 11.5 C 35 %
202 19-03-2020 09:39:18 11.8 C 35 %
203 19-03-2020 09:49:17 11.6 C 35 %
204 19-03-2020 09:59:17 12.4 C 33 %
205 19-03-2020 10:09:18 12.3 C 32 %
206 19-03-2020 10:19:18 13.1 C 31 %
207 19-03-2020 10:29:18 13.5 C 30 %
208 19-03-2020 10:39:17 13.9 C 31 %
209 19-03-2020 10:49:17 14.2 C 30 %
210 19-03-2020 10:59:17 15.4 C 29 %
211 19-03-2020 11:09:17 15.5 C 29 %
212 19-03-2020 11:19:17 16.4 C 26 %
213 19-03-2020 11:29:17 17.7 C 26 %
214 19-03-2020 11:39:17 18.5 C 24 %
215 19-03-2020 11:49:17 15.8 C 26 %
216 19-03-2020 11:59:17 15 C 28 %
217 19-03-2020 12:09:17 15.2 C 28 %
218 19-03-2020 12:19:17 15.5 C 28 %
219 19-03-2020 12:29:17 16.8 C 26 %
220 19-03-2020 12:39:18 18.1 C 22 %
221 19-03-2020 12:49:17 18.6 C 20 %
222 19-03-2020 12:59:17 17.9 C 20 %
223 19-03-2020 13:09:18 20.4 C 20 %
224 19-03-2020 13:19:18 25.8 C 20 %
225 19-03-2020 13:29:18 25.6 C 20 %
Sensor: Nr:Datum:Temp:Feuchte:
Aussen-T/F 226 19-03-2020 13:39:18 19.7 C 20 %
227 19-03-2020 13:49:17 18.8 C 20 %
228 19-03-2020 13:59:17 18.2 C 20 %
229 19-03-2020 14:09:17 18.7 C 20 %
230 19-03-2020 14:19:17 18.9 C 20 %
231 19-03-2020 14:29:17 18.8 C 20 %
232 19-03-2020 14:39:17 18.9 C 20 %
233 19-03-2020 14:49:17 19.3 C 20 %
234 19-03-2020 14:59:17 19.1 C 20 %
235 19-03-2020 15:09:18 18.5 C 20 %
236 19-03-2020 15:19:18 19.1 C 20 %
237 19-03-2020 15:29:18 19.3 C 20 %
238 19-03-2020 15:39:18 19.8 C 20 %
239 19-03-2020 15:49:17 21.8 C 20 %
240 19-03-2020 15:59:18 19.5 C 20 %
241 19-03-2020 16:09:18 19.1 C 20 %
242 19-03-2020 16:20:17 19.1 C 20 %
243 19-03-2020 16:29:17 19.1 C 20 %
244 19-03-2020 16:39:17 19.1 C 20 %
245 19-03-2020 16:49:17 19.1 C 20 %
246 19-03-2020 16:59:17 18.4 C 20 %
247 19-03-2020 17:09:18 17.6 C 20 %
248 19-03-2020 17:19:18 17.3 C 20 %
249 19-03-2020 17:29:18 17 C 20 %
250 19-03-2020 17:39:18 16.8 C 20 %
Sensor: Nr:Datum:Temp:Feuchte:
Aussen-T/F 251 19-03-2020 17:49:18 16.9 C 20 %
252 19-03-2020 17:59:18 16.7 C 20 %
253 19-03-2020 18:09:18 16.3 C 20 %
254 19-03-2020 18:20:17 15.7 C 23 %
255 19-03-2020 18:30:17 13.9 C 29 %
256 19-03-2020 18:40:17 13.5 C 30 %
257 19-03-2020 18:50:17 12.8 C 31 %
258 19-03-2020 18:59:18 12.7 C 31 %
259 19-03-2020 19:09:18 12.3 C 31 %
260 19-03-2020 19:20:17 12.2 C 31 %
261 19-03-2020 19:30:17 11.9 C 32 %
262 19-03-2020 19:40:17 11.7 C 32 %
263 19-03-2020 19:50:17 11.7 C 33 %
264 19-03-2020 19:59:17 11.7 C 33 %
265 19-03-2020 20:09:17 11.7 C 33 %
266 19-03-2020 20:29:17 11.5 C 34 %
267 19-03-2020 20:29:17 11.6 C 34 %
268 19-03-2020 20:39:17 12 C 33 %
269 19-03-2020 20:49:17 11.8 C 34 %
270 19-03-2020 20:59:17 11.5 C 35 %
271 19-03-2020 21:09:18 12 C 33 %
272 19-03-2020 21:20:17 11.4 C 35 %
273 19-03-2020 21:30:17 11.3 C 35 %
274 19-03-2020 21:40:17 10.3 C 36 %
275 19-03-2020 21:50:17 10.7 C 36 %
Sensor: Nr:Datum:Temp:Feuchte:
Aussen-T/F 276 19-03-2020 21:59:18 10.6 C 36 %
277 19-03-2020 22:09:18 10.1 C 37 %
278 19-03-2020 22:19:18 9.7 C 38 %
279 19-03-2020 22:29:18 9.8 C 38 %
280 19-03-2020 22:39:18 9.5 C 39 %
281 19-03-2020 22:49:18 9.4 C 39 %
282 19-03-2020 22:59:18 9.5 C 38 %
283 19-03-2020 23:09:18 9.5 C 38 %
284 19-03-2020 23:20:17 9.4 C 39 %
285 19-03-2020 23:30:17 9.2 C 39 %
286 19-03-2020 23:40:17 9.6 C 38 %
287 19-03-2020 23:50:17 9.1 C 39 %
288 19-03-2020 23:59:18 8.7 C 40 %
289 20-03-2020 00:09:18 8.6 C 40 %
290 20-03-2020 00:19:18 9.3 C 39 %
291 20-03-2020 00:29:18 9.1 C 39 %
292 20-03-2020 00:39:18 9 C 39 %
293 20-03-2020 00:59:17 8.8 C 40 %
294 20-03-2020 01:00:18 8.8 C 40 %
295 20-03-2020 01:10:18 8.7 C 40 %
296 20-03-2020 01:20:17 8.7 C 40 %
297 20-03-2020 01:30:18 8.6 C 40 %
298 20-03-2020 01:40:18 8.4 C 40 %
299 20-03-2020 01:50:17 8.5 C 40 %
300 20-03-2020 02:00:18 8.3 C 40 %
Sensor: Nr:Datum:Temp:Feuchte:
Aussen-T/F 301 20-03-2020 02:10:18 7.9 C 40 %
302 20-03-2020 02:20:17 7.6 C 41 %
303 20-03-2020 02:30:17 7.4 C 41 %
304 20-03-2020 02:40:17 7.4 C 41 %
305 20-03-2020 02:50:17 7.1 C 41 %
306 20-03-2020 03:00:17 7.1 C 42 %
307 20-03-2020 03:10:17 7.1 C 42 %
308 20-03-2020 03:20:17 7.1 C 42 %
309 20-03-2020 03:30:18 7.2 C 42 %
310 20-03-2020 03:40:18 7.3 C 42 %
311 20-03-2020 03:50:17 7.5 C 42 %
312 20-03-2020 04:00:18 7.5 C 42 %
313 20-03-2020 04:10:18 7.7 C 42 %
314 20-03-2020 04:20:18 7.6 C 41 %
315 20-03-2020 04:30:18 7.4 C 42 %
316 20-03-2020 04:40:18 7.2 C 42 %
317 20-03-2020 04:50:17 7 C 42 %
318 20-03-2020 05:00:18 6.9 C 43 %
319 20-03-2020 05:10:18 6.8 C 43 %
320 20-03-2020 05:20:17 6.5 C 43 %
321 20-03-2020 05:30:17 6.2 C 43 %
322 20-03-2020 05:40:17 5.9 C 44 %
323 20-03-2020 05:50:17 5.6 C 44 %
324 20-03-2020 06:00:17 5.4 C 45 %
325 20-03-2020 06:10:17 5.2 C 45 %
Sensor: Nr:Datum:Temp:Feuchte:
Aussen-T/F 326 20-03-2020 06:20:17 5 C 45 %
327 20-03-2020 06:30:17 5.1 C 46 %
328 20-03-2020 06:40:17 5 C 46 %
329 20-03-2020 06:50:17 5 C 46 %
330 20-03-2020 07:00:17 5.1 C 46 %
331 20-03-2020 07:10:17 5.3 C 46 %
332 20-03-2020 07:20:17 5.5 C 46 %
333 20-03-2020 07:30:17 5.6 C 46 %
334 20-03-2020 07:40:17 5.7 C 46 %
335 20-03-2020 07:50:18 5.8 C 46 %
336 20-03-2020 08:00:17 6.3 C 46 %
337 20-03-2020 08:10:17 6.9 C 45 %
338 20-03-2020 08:20:17 7.2 C 43 %
339 20-03-2020 08:30:17 7.1 C 43 %
340 20-03-2020 08:40:17 7.1 C 43 %
341 20-03-2020 08:50:17 7.3 C 43 %
342 20-03-2020 09:00:17 8 C 43 %
343 20-03-2020 09:10:17 8.2 C 42 %
344 20-03-2020 09:20:17 9.6 C 42 %
345 20-03-2020 09:30:17 10 C 40 %
346 20-03-2020 09:40:17 10.2 C 40 %
347 20-03-2020 09:50:17 10.5 C 39 %
348 20-03-2020 10:00:18 10.8 C 39 %
349 20-03-2020 10:10:18 11.2 C 38 %
350 20-03-2020 10:20:18 11.1 C 37 %
Sensor: Nr:Datum:Temp:Feuchte:
Aussen-T/F 351 20-03-2020 10:30:18 11 C 37 %
352 20-03-2020 10:40:18 11.5 C 37 %
353 20-03-2020 10:50:18 12.6 C 36 %
354 20-03-2020 11:00:17 13.1 C 35 %
355 20-03-2020 11:10:18 13.1 C 35 %
356 20-03-2020 11:20:18 14.2 C 33 %
357 20-03-2020 11:30:18 14.5 C 32 %
358 20-03-2020 11:40:18 15.3 C 31 %
359 20-03-2020 11:50:18 14.6 C 32 %
360 20-03-2020 12:00:17 15.6 C 31 %
361 20-03-2020 12:10:17 15.4 C 30 %
362 20-03-2020 12:20:17 15.6 C 30 %
363 20-03-2020 12:30:18 14.4 C 31 %
364 20-03-2020 12:40:18 14.9 C 31 %
365 20-03-2020 12:50:18 14.9 C 31 %
366 20-03-2020 13:00:18 14.9 C 31 %
367 20-03-2020 13:10:18 14.9 C 31 %
368 20-03-2020 13:20:18 14.9 C 31 %
369 20-03-2020 13:30:18 14.9 C 31 %
370 20-03-2020 13:40:18 14.9 C 31 %
371 20-03-2020 13:50:17 16.4 C 26 %
372 20-03-2020 14:00:17 16.2 C 27 %
373 20-03-2020 14:10:17 16.6 C 26 %
374 20-03-2020 14:20:17 16.2 C 27 %
375 20-03-2020 14:30:18 17.4 C 26 %
Sensor: Nr:Datum:Temp:Feuchte:
Aussen-T/F 376 20-03-2020 14:40:18 17.3 C 26 %
377 20-03-2020 14:50:18 17.9 C 25 %
378 20-03-2020 15:00:17 17.9 C 25 %
379 20-03-2020 15:10:17 18.1 C 25 %
380 20-03-2020 15:20:17 17 C 25 %
381 20-03-2020 15:30:18 17.9 C 25 %
382 20-03-2020 15:40:18 18.5 C 25 %
383 20-03-2020 15:50:18 17 C 25 %
384 20-03-2020 16:00:17 16.2 C 26 %
385 20-03-2020 16:10:17 16.1 C 26 %
386 20-03-2020 16:20:17 15.5 C 26 %
387 20-03-2020 16:30:18 15.8 C 26 %
388 20-03-2020 16:40:18 15.3 C 26 %
389 20-03-2020 16:50:18 17 C 25 %
390 20-03-2020 17:00:18 16.1 C 26 %
391 20-03-2020 17:10:18 15.2 C 27 %
392 20-03-2020 17:20:18 14.3 C 28 %
393 20-03-2020 17:30:18 13.9 C 30 %
394 20-03-2020 17:40:18 12.8 C 31 %
395 20-03-2020 17:50:17 12.5 C 31 %
396 20-03-2020 18:00:17 12.4 C 32 %
397 20-03-2020 18:10:17 11.9 C 33 %
398 20-03-2020 18:20:17 11.8 C 34 %
399 20-03-2020 18:30:17 11.6 C 34 %
400 20-03-2020 18:40:17 11.6 C 34 %
Sensor: Nr:Datum:Temp:Feuchte:
Aussen-T/F 401 20-03-2020 18:50:18 11.5 C 34 %
402 20-03-2020 19:00:17 11.5 C 34 %
403 20-03-2020 19:10:17 11.3 C 34 %
404 20-03-2020 19:20:17 11.1 C 34 %
405 20-03-2020 19:30:17 11 C 35 %
406 20-03-2020 19:40:17 10.7 C 35 %
407 20-03-2020 19:50:17 10.6 C 35 %
408 20-03-2020 20:00:17 10.4 C 35 %
409 20-03-2020 20:10:17 10.2 C 35 %
410 20-03-2020 20:20:17 10.3 C 35 %
411 20-03-2020 20:30:17 10.3 C 35 %
412 20-03-2020 20:40:17 10.2 C 35 %
413 20-03-2020 20:50:18 10.3 C 35 %
414 20-03-2020 21:00:18 10.1 C 35 %
415 20-03-2020 21:10:18 9.9 C 35 %
416 20-03-2020 21:20:17 9.5 C 35 %
417 20-03-2020 21:30:17 9.2 C 35 %
418 20-03-2020 21:40:17 9.1 C 35 %
419 20-03-2020 21:50:17 8.7 C 36 %
420 20-03-2020 22:00:17 8.5 C 36 %
421 20-03-2020 22:10:17 8.4 C 36 %
422 20-03-2020 22:20:18 8.3 C 36 %
423 20-03-2020 22:30:17 8.2 C 36 %
424 20-03-2020 22:40:18 8.1 C 36 %
425 20-03-2020 22:50:17 8.1 C 36 %
Sensor: Nr:Datum:Temp:Feuchte:
Aussen-T/F 426 20-03-2020 23:00:18 8 C 35 %
427 20-03-2020 23:10:18 7.9 C 36 %
428 20-03-2020 23:20:17 7.9 C 36 %
429 20-03-2020 23:30:18 7.9 C 35 %
430 20-03-2020 23:40:18 7.8 C 35 %
431 20-03-2020 23:50:18 7.7 C 35 %
432 21-03-2020 00:00:17 7.6 C 34 %
433 21-03-2020 00:10:17 7.6 C 34 %
434 21-03-2020 00:20:17 7.4 C 34 %
435 21-03-2020 00:30:17 7.3 C 34 %
436 21-03-2020 00:40:17 7.3 C 34 %
437 21-03-2020 00:50:17 7.3 C 34 %
438 21-03-2020 01:00:17 7.2 C 33 %
439 21-03-2020 01:10:17 7.1 C 33 %
440 21-03-2020 01:20:17 6.8 C 35 %
441 21-03-2020 01:30:18 6.5 C 35 %
442 21-03-2020 01:40:18 6.2 C 36 %
443 21-03-2020 01:50:17 5.9 C 38 %
444 21-03-2020 02:00:18 5.6 C 39 %
445 21-03-2020 02:10:18 5.3 C 40 %
446 21-03-2020 02:20:17 5.1 C 41 %
447 21-03-2020 02:30:18 4.9 C 43 %
448 21-03-2020 02:40:18 4.9 C 43 %
449 21-03-2020 02:50:18 4.6 C 43 %
450 21-03-2020 03:00:17 4.5 C 43 %
Sensor: Nr:Datum:Temp:Feuchte:
Aussen-T/F 451 21-03-2020 03:10:17 4.4 C 44 %
452 21-03-2020 03:20:17 4.5 C 45 %
453 21-03-2020 03:30:18 4.5 C 45 %
454 21-03-2020 03:40:18 4.4 C 45 %
455 21-03-2020 03:50:17 4.4 C 45 %
456 21-03-2020 04:00:18 4.3 C 45 %
457 21-03-2020 04:10:18 4.2 C 45 %
458 21-03-2020 04:20:17 4.1 C 45 %
459 21-03-2020 04:30:18 4.1 C 45 %
460 21-03-2020 04:40:18 4 C 45 %
461 21-03-2020 04:50:18 3.9 C 46 %
462 21-03-2020 05:00:18 3.9 C 46 %
463 21-03-2020 05:10:18 4 C 46 %
464 21-03-2020 05:20:18 3.9 C 47 %
465 21-03-2020 05:30:18 3.9 C 47 %
466 21-03-2020 05:40:18 3.9 C 47 %
467 21-03-2020 05:50:17 4 C 46 %
468 21-03-2020 06:00:18 4 C 47 %
469 21-03-2020 06:10:18 3.9 C 47 %
470 21-03-2020 06:20:17 4 C 47 %
471 21-03-2020 06:30:18 4 C 47 %
472 21-03-2020 06:40:18 4 C 47 %
473 21-03-2020 06:50:17 4 C 47 %
474 21-03-2020 07:00:17 4.1 C 47 %
475 21-03-2020 07:10:18 4.1 C 47 %
Sensor: Nr:Datum:Temp:Feuchte:
Aussen-T/F 476 21-03-2020 07:20:18 4.1 C 47 %
477 21-03-2020 07:30:18 4.2 C 47 %
478 21-03-2020 07:40:18 4.3 C 47 %
479 21-03-2020 07:50:17 4.3 C 47 %
480 21-03-2020 08:00:18 4.4 C 47 %
481 21-03-2020 08:10:18 4.5 C 47 %
482 21-03-2020 08:20:17 4.5 C 46 %
483 21-03-2020 08:30:17 4.6 C 46 %
484 21-03-2020 08:40:17 4.7 C 46 %
485 21-03-2020 08:50:18 4.8 C 46 %
486 21-03-2020 09:00:18 4.7 C 46 %
487 21-03-2020 09:10:18 4.6 C 45 %
488 21-03-2020 09:20:18 5.2 C 43 %
489 21-03-2020 09:30:18 5.6 C 42 %
490 21-03-2020 09:40:18 5.8 C 41 %
491 21-03-2020 09:50:17 6 C 41 %
492 21-03-2020 10:00:17 6.2 C 41 %
493 21-03-2020 10:10:18 6.4 C 39 %
494 21-03-2020 10:20:18 6.5 C 40 %
495 21-03-2020 10:30:18 6.7 C 39 %
496 21-03-2020 10:40:18 6.7 C 38 %
497 21-03-2020 10:50:17 6.4 C 39 %
498 21-03-2020 11:00:17 6.5 C 37 %
499 21-03-2020 11:10:18 7.1 C 36 %
500 21-03-2020 11:20:18 7.3 C 36 %
Sensor: Nr:Datum:Temp:Feuchte:
Aussen-T/F 501 21-03-2020 11:30:18 8.1 C 34 %
502 21-03-2020 11:40:18 8 C 34 %
503 21-03-2020 11:50:18 8.3 C 32 %
504 21-03-2020 12:00:18 7.8 C 32 %
505 21-03-2020 12:10:18 7.6 C 33 %
506 21-03-2020 12:20:17 7.9 C 31 %
507 21-03-2020 12:30:17 8.7 C 32 %
508 21-03-2020 12:40:17 8.2 C 30 %
509 21-03-2020 12:50:17 7.8 C 31 %
510 21-03-2020 13:00:17 7.9 C 30 %
511 21-03-2020 13:10:17 8.7 C 30 %
512 21-03-2020 13:20:18 8.9 C 28 %
513 21-03-2020 13:30:18 8.5 C 28 %
514 21-03-2020 13:40:18 8.2 C 27 %
515 21-03-2020 13:50:17 8.4 C 27 %
516 21-03-2020 14:00:18 8.6 C 27 %
517 21-03-2020 14:10:18 9.1 C 26 %
518 21-03-2020 14:20:18 8.7 C 27 %
519 21-03-2020 14:30:18 9.1 C 25 %
520 21-03-2020 14:40:18 11.1 C 24 %
521 21-03-2020 14:50:17 9.8 C 23 %
522 21-03-2020 15:00:18 11 C 20 %
523 21-03-2020 15:10:18 10.1 C 20 %
524 21-03-2020 15:20:17 11.2 C 20 %
525 21-03-2020 15:30:17 11.7 C 20 %
Sensor: Nr:Datum:Temp:Feuchte:
Aussen-T/F 526 21-03-2020 15:40:17 9.4 C 20 %
527 21-03-2020 15:50:17 8.6 C 20 %
528 21-03-2020 16:00:18 9.4 C 20 %
529 21-03-2020 16:10:18 9.5 C 20 %
530 21-03-2020 16:20:17 12.1 C 20 %
531 21-03-2020 16:30:17 12 C 20 %
532 21-03-2020 16:40:17 13.3 C 20 %
533 21-03-2020 16:50:17 10.9 C 20 %
534 21-03-2020 17:00:17 9.2 C 20 %
535 21-03-2020 17:10:17 8.9 C 20 %
536 21-03-2020 17:20:17 8.3 C 20 %
537 21-03-2020 17:30:18 7.8 C 20 %
538 21-03-2020 17:40:18 7.8 C 20 %
539 21-03-2020 17:50:17 7.5 C 20 %
540 21-03-2020 18:00:17 7 C 20 %
541 21-03-2020 18:10:17 6.9 C 20 %
542 21-03-2020 18:20:17 6.6 C 21 %
543 21-03-2020 18:30:17 6.4 C 23 %
544 21-03-2020 18:40:17 5.9 C 25 %
545 21-03-2020 18:50:17 5.5 C 27 %
546 21-03-2020 19:00:17 5.5 C 26 %
547 21-03-2020 19:10:17 5.1 C 28 %
548 21-03-2020 19:20:17 4.7 C 30 %
549 21-03-2020 19:30:18 4.4 C 31 %
550 21-03-2020 19:40:18 4.5 C 30 %
Sensor: Nr:Datum:Temp:Feuchte:
Aussen-T/F 551 21-03-2020 19:50:17 4.4 C 29 %
552 21-03-2020 20:00:18 4.1 C 30 %
553 21-03-2020 20:10:18 3.7 C 31 %
554 21-03-2020 20:20:18 3.2 C 33 %
555 21-03-2020 20:30:18 3.7 C 32 %
556 21-03-2020 20:40:18 3.9 C 30 %
557 21-03-2020 20:50:17 3.6 C 31 %
558 21-03-2020 21:00:18 3.3 C 32 %
559 21-03-2020 21:10:18 3 C 32 %
560 21-03-2020 21:20:18 3.4 C 32 %
561 21-03-2020 21:30:18 3.1 C 31 %
562 21-03-2020 21:40:18 2.9 C 32 %
563 21-03-2020 21:50:17 2.6 C 33 %
564 21-03-2020 22:00:17 1.9 C 36 %
565 21-03-2020 22:10:17 2.3 C 34 %
566 21-03-2020 22:20:17 3 C 32 %
567 21-03-2020 22:30:18 2.7 C 32 %
568 21-03-2020 22:40:18 2.3 C 33 %
569 21-03-2020 22:50:18 2.7 C 32 %
570 21-03-2020 23:00:18 2 C 34 %
571 21-03-2020 23:10:18 2.2 C 33 %
572 21-03-2020 23:20:18 1.6 C 35 %
573 21-03-2020 23:30:18 1.7 C 35 %
574 21-03-2020 23:40:18 1.8 C 35 %
575 21-03-2020 23:50:17 1.7 C 35 %
Sensor: Nr:Datum:Temp:Feuchte:
Aussen-T/F 576 22-03-2020 00:00:18 1.4 C 35 %
577 22-03-2020 00:10:18 1.5 C 35 %
578 22-03-2020 00:20:17 0.9 C 37 %
579 22-03-2020 00:30:17 0.7 C 38 %
580 22-03-2020 00:40:17 1.2 C 36 %
581 22-03-2020 00:50:17 0.9 C 37 %
582 22-03-2020 01:00:18 1.5 C 35 %
583 22-03-2020 01:10:18 1.5 C 35 %
584 22-03-2020 01:20:18 1.1 C 35 %
585 22-03-2020 01:30:18 1.1 C 35 %
586 22-03-2020 01:40:18 0.9 C 36 %
587 22-03-2020 01:50:18 1 C 35 %
588 22-03-2020 02:00:18 1 C 35 %
589 22-03-2020 02:10:18 0.1 C 38 %
590 22-03-2020 02:20:17 0.3 C 38 %
591 22-03-2020 02:30:18 0.5 C 37 %
592 22-03-2020 02:40:18 0.5 C 37 %
593 22-03-2020 02:50:18 0.4 C 37 %
594 22-03-2020 03:00:18 0.2 C 37 %
595 22-03-2020 03:10:18 0.7 C 37 %
596 22-03-2020 03:20:18 -0.4 C 38 %
597 22-03-2020 03:30:18 -0.1 C 38 %
598 22-03-2020 03:40:18 -0.4 C 39 %
599 22-03-2020 03:50:17 -0.3 C 39 %
600 22-03-2020 04:00:17 -0.2 C 38 %
Sensor: Nr:Datum:Temp:Feuchte:
Aussen-T/F 601 22-03-2020 04:10:17 0 C 37 %
602 22-03-2020 04:20:17 -0.4 C 38 %
603 22-03-2020 04:30:17 0.3 C 37 %
604 22-03-2020 04:40:17 0.1 C 37 %
605 22-03-2020 04:50:17 -0.2 C 38 %
606 22-03-2020 05:00:18 0.1 C 37 %
607 22-03-2020 05:10:18 -0.3 C 37 %
608 22-03-2020 05:20:17 -0.4 C 37 %
609 22-03-2020 05:30:18 -0.5 C 38 %
610 22-03-2020 05:40:18 -0.7 C 38 %
611 22-03-2020 05:50:17 -1 C 39 %
612 22-03-2020 06:00:17 -1.1 C 39 %
613 22-03-2020 06:10:17 -0.8 C 39 %
614 22-03-2020 06:20:17 0.1 C 37 %
615 22-03-2020 06:30:17 -0.3 C 37 %
616 22-03-2020 06:40:17 -0.4 C 37 %
617 22-03-2020 06:50:18 0 C 36 %
618 22-03-2020 07:00:18 -0.3 C 37 %
619 22-03-2020 07:10:18 -0.2 C 37 %
620 22-03-2020 07:20:18 -0.4 C 37 %
621 22-03-2020 07:30:18 -0.1 C 36 %
622 22-03-2020 07:40:18 -0.2 C 37 %
623 22-03-2020 07:50:17 -0.1 C 36 %
624 22-03-2020 08:00:18 -0.1 C 36 %
625 22-03-2020 08:10:18 0.3 C 36 %
Sensor: Nr:Datum:Temp:Feuchte:
Aussen-T/F 626 22-03-2020 08:20:18 0.3 C 35 %
627 22-03-2020 08:30:18 0.5 C 35 %
628 22-03-2020 08:40:18 0.8 C 35 %
629 22-03-2020 08:50:18 0.4 C 35 %
630 22-03-2020 09:00:18 0.8 C 35 %
631 22-03-2020 09:10:18 1.2 C 32 %
632 22-03-2020 09:20:18 1.6 C 32 %
633 22-03-2020 09:30:18 2.2 C 30 %
634 22-03-2020 09:40:18 2.5 C 27 %
635 22-03-2020 09:50:17 2.8 C 26 %
636 22-03-2020 10:00:18 3.3 C 25 %
637 22-03-2020 10:10:18 3.6 C 25 %
638 22-03-2020 10:20:18 3.9 C 20 %
639 22-03-2020 10:30:18 4.4 C 20 %
640 22-03-2020 10:40:18 4.6 C 20 %
641 22-03-2020 10:50:17 5.2 C 20 %
642 22-03-2020 11:00:18 5.5 C 20 %
643 22-03-2020 11:10:18 6.3 C 20 %
644 22-03-2020 11:20:17 6.5 C 20 %
645 22-03-2020 11:30:18 6.7 C 20 %
646 22-03-2020 11:40:18 6.7 C 20 %
647 22-03-2020 11:50:17 6.5 C 20 %
648 22-03-2020 12:00:18 7 C 20 %
649 22-03-2020 12:10:18 7.4 C 20 %
650 22-03-2020 12:20:18 7.3 C 20 %
Sensor: Nr:Datum:Temp:Feuchte:
Aussen-T/F 651 22-03-2020 12:30:17 6.9 C 20 %
652 22-03-2020 12:40:17 8 C 20 %
653 22-03-2020 12:50:18 8.5 C 20 %
654 22-03-2020 13:00:18 10.1 C 20 %
655 22-03-2020 13:10:18 11.1 C 20 %
656 22-03-2020 13:20:17 11.9 C 20 %
657 22-03-2020 13:30:18 11.6 C 20 %
658 22-03-2020 13:40:18 10.9 C 20 %
659 22-03-2020 13:50:18 10.3 C 20 %
660 22-03-2020 14:00:17 9.6 C 20 %
661 22-03-2020 14:10:17 10.2 C 20 %
662 22-03-2020 14:20:17 12.2 C 20 %
663 22-03-2020 14:30:17 12.6 C 20 %
664 22-03-2020 14:40:17 14.4 C 20 %
665 22-03-2020 14:50:17 14.4 C 20 %
666 22-03-2020 15:00:18 15 C 20 %
667 22-03-2020 15:10:18 14.4 C 20 %
668 22-03-2020 15:20:17 14.7 C 20 %
669 22-03-2020 15:30:17 13.6 C 20 %
670 22-03-2020 15:40:17 13.7 C 20 %
671 22-03-2020 15:50:18 15.4 C 20 %
672 22-03-2020 16:00:18 16.2 C 20 %
673 22-03-2020 16:10:18 14.9 C 20 %
674 22-03-2020 16:20:18 14.1 C 20 %
675 22-03-2020 16:30:18 13.3 C 20 %
Sensor: Nr:Datum:Temp:Feuchte:
Aussen-T/F 676 22-03-2020 16:40:18 13.2 C 20 %
677 22-03-2020 16:50:17 11.7 C 20 %
678 22-03-2020 17:00:17 10.7 C 20 %
679 22-03-2020 17:10:17 9.9 C 20 %
680 22-03-2020 17:20:17 9.7 C 20 %
681 22-03-2020 17:30:17 9.8 C 20 %
682 22-03-2020 17:40:17 9.5 C 20 %
683 22-03-2020 17:50:17 8.9 C 20 %
684 22-03-2020 18:00:18 8.6 C 20 %
685 22-03-2020 18:10:18 8.4 C 20 %
686 22-03-2020 18:20:17 7.9 C 20 %
687 22-03-2020 18:30:17 7.5 C 20 %
688 22-03-2020 18:40:17 7 C 20 %
689 22-03-2020 18:50:17 6.5 C 20 %
690 22-03-2020 19:00:17 5.6 C 20 %
691 22-03-2020 19:10:17 4.9 C 21 %
692 22-03-2020 19:20:17 5.2 C 20 %
693 22-03-2020 19:30:17 4.3 C 26 %
694 22-03-2020 19:40:17 3.8 C 27 %
695 22-03-2020 19:50:18 3.7 C 28 %
696 22-03-2020 20:00:18 3.6 C 28 %
697 22-03-2020 20:10:18 3.6 C 27 %
698 22-03-2020 20:20:17 3.6 C 26 %
699 22-03-2020 20:30:17 3.2 C 26 %
700 22-03-2020 20:40:17 3 C 26 %
Sensor: Nr:Datum:Temp:Feuchte:
Aussen-T/F 701 22-03-2020 20:50:17 2.5 C 30 %
702 22-03-2020 21:00:17 2.9 C 26 %
703 22-03-2020 21:10:17 2.7 C 27 %
704 22-03-2020 21:20:17 2.3 C 30 %
705 22-03-2020 21:30:17 2.2 C 29 %
706 22-03-2020 21:40:17 1.8 C 30 %
707 22-03-2020 21:50:18 1.5 C 31 %
708 22-03-2020 22:00:18 2 C 30 %
709 22-03-2020 22:10:18 2.5 C 26 %
710 22-03-2020 22:20:17 1.8 C 30 %
711 22-03-2020 22:30:17 1.5 C 29 %
712 22-03-2020 22:40:17 1.3 C 31 %
713 22-03-2020 22:50:17 1.4 C 30 %
714 22-03-2020 23:00:17 0.7 C 33 %
715 22-03-2020 23:10:17 1.1 C 30 %
716 22-03-2020 23:20:17 0.8 C 32 %
717 22-03-2020 23:30:18 0.3 C 33 %
718 22-03-2020 23:40:18 0.3 C 34 %
719 22-03-2020 23:50:18 0.6 C 33 %
720 23-03-2020 00:00:18 0.4 C 34 %
721 23-03-2020 00:10:18 0 C 33 %
722 23-03-2020 00:20:17 -0.2 C 33 %
723 23-03-2020 00:30:17 -0.5 C 35 %
724 23-03-2020 00:40:17 -0.7 C 36 %
725 23-03-2020 00:50:18 -1.1 C 36 %
Sensor: Nr:Datum:Temp:Feuchte:
Aussen-T/F 726 23-03-2020 01:00:17 -0.6 C 35 %
727 23-03-2020 01:10:17 -0.7 C 36 %
728 23-03-2020 01:20:17 -0.9 C 35 %
729 23-03-2020 01:30:18 -0.8 C 35 %
730 23-03-2020 01:40:18 -1.1 C 35 %
731 23-03-2020 01:50:18 -0.8 C 35 %
732 23-03-2020 02:00:18 -1.1 C 35 %
733 23-03-2020 02:10:18 -1.4 C 35 %
734 23-03-2020 02:20:17 -1.2 C 35 %
735 23-03-2020 02:30:17 -1.2 C 35 %
736 23-03-2020 02:40:17 -1.2 C 35 %
737 23-03-2020 02:50:17 -1.3 C 35 %
738 23-03-2020 03:00:17 -1.6 C 35 %
739 23-03-2020 03:10:18 -1.9 C 35 %
740 23-03-2020 03:20:18 -1.6 C 35 %
741 23-03-2020 03:30:18 -1.7 C 35 %
742 23-03-2020 03:40:18 -1.9 C 35 %
743 23-03-2020 03:50:18 -1.8 C 35 %
744 23-03-2020 04:00:18 -1.8 C 35 %
745 23-03-2020 04:10:18 -2.1 C 35 %
746 23-03-2020 04:20:17 -1.9 C 35 %
747 23-03-2020 04:30:17 -2 C 35 %
748 23-03-2020 04:40:17 -2.1 C 35 %
749 23-03-2020 04:50:17 -2.7 C 36 %
750 23-03-2020 05:00:18 -2.5 C 36 %
Sensor: Nr:Datum:Temp:Feuchte:
Aussen-T/F 751 23-03-2020 05:10:18 -2.4 C 36 %
752 23-03-2020 05:20:17 -2.3 C 36 %
753 23-03-2020 05:30:18 -2.4 C 35 %
754 23-03-2020 05:40:18 -2.7 C 36 %
755 23-03-2020 05:50:17 -2.7 C 36 %
756 23-03-2020 06:00:18 -2.6 C 36 %
757 23-03-2020 06:10:18 -2.9 C 36 %
758 23-03-2020 06:20:17 -2.6 C 36 %
759 23-03-2020 06:30:18 -2.8 C 36 %
760 23-03-2020 06:40:18 -3.2 C 36 %
761 23-03-2020 06:50:18 -3 C 36 %
762 23-03-2020 07:00:18 -3 C 36 %
763 23-03-2020 07:10:18 -3.1 C 36 %
764 23-03-2020 07:20:18 -2.5 C 35 %
765 23-03-2020 07:30:18 -2.7 C 36 %
766 23-03-2020 07:40:18 -2.6 C 36 %
767 23-03-2020 07:50:18 -1.9 C 34 %
768 23-03-2020 08:00:18 -2 C 35 %
769 23-03-2020 08:10:18 -1.4 C 32 %
770 23-03-2020 08:20:17 -1.1 C 31 %
771 23-03-2020 08:30:18 -0.2 C 27 %
772 23-03-2020 08:40:18 -0.2 C 26 %
773 23-03-2020 08:50:18 -0.3 C 25 %
774 23-03-2020 09:00:18 0 C 23 %
775 23-03-2020 09:10:18 0.2 C 23 %
Sensor: Nr:Datum:Temp:Feuchte:
Aussen-T/F 776 23-03-2020 09:20:18 0.5 C 20 %
777 23-03-2020 09:30:17 0.7 C 20 %
778 23-03-2020 09:40:17 1.5 C 20 %
779 23-03-2020 09:50:18 1.8 C 20 %
780 23-03-2020 10:00:18 2.4 C 20 %
781 23-03-2020 10:10:18 2.7 C 20 %
782 23-03-2020 10:20:18 3 C 20 %
783 23-03-2020 10:30:17 3.8 C 20 %
784 23-03-2020 10:40:17 4.1 C 20 %
785 23-03-2020 10:50:17 4.7 C 20 %
786 23-03-2020 11:00:17 5.5 C 20 %
787 23-03-2020 11:10:17 5.5 C 20 %
788 23-03-2020 11:20:17 6 C 20 %
789 23-03-2020 11:30:18 6.7 C 20 %
790 23-03-2020 11:40:18 6.2 C 20 %
791 23-03-2020 11:50:17 6.3 C 20 %
792 23-03-2020 12:00:18 7 C 20 %
793 23-03-2020 12:10:18 7.4 C 20 %
794 23-03-2020 12:20:18 7.8 C 20 %
795 23-03-2020 12:30:18 7.5 C 20 %
796 23-03-2020 12:40:18 8.1 C 20 %
797 23-03-2020 12:50:18 8.7 C 20 %
798 23-03-2020 13:00:17 10.4 C 20 %
799 23-03-2020 13:10:17 10.7 C 20 %
800 23-03-2020 13:20:17 11.9 C 20 %
Sensor: Nr:Datum:Temp:Feuchte:
Aussen-T/F 801 23-03-2020 13:30:17 11.4 C 20 %
802 23-03-2020 13:40:17 10 C 20 %
803 23-03-2020 13:50:17 9.8 C 20 %
804 23-03-2020 14:00:18 9.2 C 20 %
805 23-03-2020 14:10:18 10.5 C 20 %
806 23-03-2020 14:20:18 12.9 C 20 %
807 23-03-2020 14:30:18 13 C 20 %
808 23-03-2020 14:40:18 14.2 C 20 %
809 23-03-2020 14:50:18 14.3 C 20 %
810 23-03-2020 15:00:18 14.3 C 20 %
811 23-03-2020 15:10:18 14.4 C 20 %
812 23-03-2020 15:20:17 14.7 C 20 %
813 23-03-2020 15:30:17 13.5 C 20 %
814 23-03-2020 15:40:17 14.4 C 20 %
815 23-03-2020 15:50:17 14.1 C 20 %
816 23-03-2020 16:00:17 13.8 C 20 %
817 23-03-2020 16:10:17 14.7 C 20 %
818 23-03-2020 16:20:17 15.3 C 20 %
819 23-03-2020 16:30:18 14.7 C 20 %
820 23-03-2020 16:40:18 14.8 C 20 %
821 23-03-2020 16:50:17 11.4 C 20 %
822 23-03-2020 17:00:18 10.1 C 20 %
823 23-03-2020 17:10:18 9.7 C 20 %
824 23-03-2020 17:20:18 9.4 C 20 %
825 23-03-2020 17:30:18 9 C 20 %
Sensor: Nr:Datum:Temp:Feuchte:
Aussen-T/F 826 23-03-2020 17:40:18 9 C 20 %
827 23-03-2020 17:50:17 8.6 C 20 %
828 23-03-2020 18:00:18 8.3 C 20 %
829 23-03-2020 18:10:18 7.6 C 20 %
830 23-03-2020 18:20:17 7.4 C 20 %
831 23-03-2020 18:30:18 7 C 20 %
832 23-03-2020 18:40:18 5.3 C 20 %
833 23-03-2020 18:50:18 4.4 C 20 %
834 23-03-2020 19:00:18 4.2 C 20 %
835 23-03-2020 19:10:18 4.1 C 20 %
836 23-03-2020 19:20:17 3.7 C 20 %
837 23-03-2020 19:30:18 3.6 C 20 %
838 23-03-2020 19:40:18 3.4 C 20 %
839 23-03-2020 19:50:18 2.7 C 20 %
840 23-03-2020 20:00:17 2.9 C 20 %
841 23-03-2020 20:10:17 2.6 C 20 %
842 23-03-2020 20:20:17 2.5 C 20 %
843 23-03-2020 20:30:18 2.3 C 20 %
844 23-03-2020 20:40:18 2.4 C 20 %
845 23-03-2020 20:50:18 2.3 C 20 %
846 23-03-2020 21:00:18 2.1 C 20 %
847 23-03-2020 21:10:18 0.9 C 27 %
848 23-03-2020 21:20:17 1 C 26 %
849 23-03-2020 21:30:18 1.1 C 28 %
850 23-03-2020 21:40:18 0.7 C 29 %
Sensor: Nr:Datum:Temp:Feuchte:
Aussen-T/F 851 23-03-2020 21:50:18 0.2 C 30 %
852 23-03-2020 22:00:17 -0.4 C 31 %
853 23-03-2020 22:10:18 -0.9 C 35 %
854 23-03-2020 22:20:18 -0.2 C 34 %
855 23-03-2020 22:30:18 -0.9 C 35 %
856 23-03-2020 22:40:18 -0.9 C 35 %
857 23-03-2020 22:50:18 -1.3 C 35 %
858 23-03-2020 23:00:18 -1.4 C 36 %
859 23-03-2020 23:10:18 -1.6 C 36 %
860 23-03-2020 23:20:17 -1.7 C 36 %
861 23-03-2020 23:30:17 -1.7 C 37 %
862 23-03-2020 23:40:17 -1.9 C 37 %
863 23-03-2020 23:50:18 -1.8 C 37 %
864 24-03-2020 00:00:18 -1.9 C 36 %
865 24-03-2020 00:10:18 -2 C 36 %
866 24-03-2020 00:20:17 -2.2 C 36 %
867 24-03-2020 00:30:18 -2.4 C 37 %
868 24-03-2020 00:40:18 -2.4 C 38 %
869 24-03-2020 00:50:18 -2.5 C 38 %
870 24-03-2020 01:00:18 -2.3 C 37 %
871 24-03-2020 01:10:18 -2.6 C 37 %
872 24-03-2020 01:20:18 -2.7 C 38 %
873 24-03-2020 01:30:18 -2.7 C 38 %
874 24-03-2020 01:40:18 -3 C 38 %
875 24-03-2020 01:50:18 -2.5 C 37 %
Sensor: Nr:Datum:Temp:Feuchte:
Aussen-T/F 876 24-03-2020 02:00:18 -2.6 C 38 %
877 24-03-2020 02:10:18 -2.8 C 38 %
878 24-03-2020 02:20:17 -3.1 C 38 %
879 24-03-2020 02:30:17 -3.2 C 38 %
880 24-03-2020 02:40:17 -3.3 C 38 %
881 24-03-2020 02:50:17 -3.2 C 38 %
882 24-03-2020 03:00:17 -3.4 C 38 %
883 24-03-2020 03:10:17 -3.5 C 38 %
884 24-03-2020 03:20:17 -3.6 C 39 %
885 24-03-2020 03:30:17 -3.6 C 38 %
886 24-03-2020 03:40:17 -3.7 C 38 %
887 24-03-2020 03:50:17 -3.9 C 39 %
888 24-03-2020 04:00:18 -3.7 C 39 %
889 24-03-2020 04:10:18 -3.9 C 38 %
890 24-03-2020 04:20:18 -4 C 38 %
891 24-03-2020 04:30:18 -4 C 38 %
892 24-03-2020 04:40:18 -4 C 38 %
893 24-03-2020 04:50:17 -3.9 C 38 %
894 24-03-2020 05:00:17 -4.2 C 38 %
895 24-03-2020 05:10:17 -4.3 C 39 %
896 24-03-2020 05:20:17 -4.2 C 38 %
897 24-03-2020 05:30:18 -4.3 C 38 %
898 24-03-2020 05:40:18 -4.4 C 38 %
899 24-03-2020 05:50:18 -4.6 C 39 %
900 24-03-2020 06:00:17 -4.7 C 39 %
Sensor: Nr:Datum:Temp:Feuchte:
Aussen-T/F 901 24-03-2020 06:10:18 -4.7 C 38 %
902 24-03-2020 06:20:17 -4.7 C 39 %
903 24-03-2020 06:30:18 -4.7 C 38 %
904 24-03-2020 06:40:18 -4.6 C 39 %
905 24-03-2020 06:50:18 -4.4 C 38 %
906 24-03-2020 07:00:18 -4.5 C 39 %
907 24-03-2020 07:10:18 -4.4 C 39 %
908 24-03-2020 07:20:18 -4.3 C 39 %
909 24-03-2020 07:30:18 -4.2 C 39 %
910 24-03-2020 07:40:18 -4 C 39 %
911 24-03-2020 07:50:17 -3.8 C 39 %
912 24-03-2020 08:00:17 -3.7 C 39 %
913 24-03-2020 08:10:17 -3.5 C 38 %
914 24-03-2020 08:20:17 -3.3 C 38 %
915 24-03-2020 08:30:17 -2.5 C 38 %
916 24-03-2020 08:40:17 -2.4 C 37 %
917 24-03-2020 08:50:17 -2 C 37 %
918 24-03-2020 09:00:17 -1.6 C 36 %
919 24-03-2020 09:10:17 -0.7 C 35 %
920 24-03-2020 09:20:17 -0.2 C 34 %
921 24-03-2020 09:30:17 0.4 C 30 %
922 24-03-2020 09:40:17 1 C 27 %
923 24-03-2020 09:50:18 1.7 C 23 %
924 24-03-2020 10:00:18 3 C 20 %
925 24-03-2020 10:10:18 3.3 C 20 %
Sensor: Nr:Datum:Temp:Feuchte:
Aussen-T/F 926 24-03-2020 10:20:17 3.9 C 20 %
927 24-03-2020 10:30:17 4.3 C 20 %
928 24-03-2020 10:40:17 4.7 C 20 %
929 24-03-2020 10:50:17 5.7 C 20 %
930 24-03-2020 11:00:18 5.7 C 20 %
931 24-03-2020 11:10:18 6.4 C 20 %
932 24-03-2020 11:20:17 6.9 C 20 %
933 24-03-2020 11:30:17 7.9 C 20 %
934 24-03-2020 11:40:17 7.2 C 20 %
935 24-03-2020 11:50:18 6.8 C 20 %
936 24-03-2020 12:00:18 7.8 C 20 %
937 24-03-2020 12:10:18 8.6 C 20 %
938 24-03-2020 12:20:17 8.2 C 20 %
939 24-03-2020 12:30:17 8.2 C 20 %
940 24-03-2020 12:40:17 9 C 20 %
941 24-03-2020 12:50:17 9.2 C 20 %
942 24-03-2020 13:00:18 10.4 C 20 %
943 24-03-2020 13:10:18 11.7 C 20 %
944 24-03-2020 13:20:17 12.5 C 20 %
945 24-03-2020 13:30:17 13 C 20 %
946 24-03-2020 13:40:17 11.9 C 20 %
947 24-03-2020 13:50:18 11 C 20 %
948 24-03-2020 14:00:17 10.8 C 20 %
949 24-03-2020 14:10:17 11.3 C 20 %
950 24-03-2020 14:20:17 13.7 C 20 %
Sensor: Nr:Datum:Temp:Feuchte:
Aussen-T/F 951 24-03-2020 14:30:17 12.2 C 20 %
952 24-03-2020 14:40:17 14.4 C 20 %
953 24-03-2020 14:50:18 13.4 C 20 %
954 24-03-2020 15:00:18 13.5 C 20 %
955 24-03-2020 15:10:18 14.1 C 20 %
956 24-03-2020 15:20:18 15.3 C 20 %
957 24-03-2020 15:30:18 14.1 C 20 %
958 24-03-2020 15:40:18 15.4 C 20 %
959 24-03-2020 15:50:18 14.9 C 20 %
960 24-03-2020 16:00:18 14.8 C 20 %
961 24-03-2020 16:10:18 14.8 C 20 %
962 24-03-2020 16:20:18 14.1 C 20 %
963 24-03-2020 16:30:18 13.6 C 20 %
964 24-03-2020 16:40:18 14.3 C 20 %
965 24-03-2020 16:50:18 11.4 C 20 %
966 24-03-2020 17:00:18 10.8 C 20 %
967 24-03-2020 17:10:18 10.4 C 20 %
968 24-03-2020 17:20:18 10.1 C 20 %
969 24-03-2020 17:30:18 9.9 C 20 %
970 24-03-2020 17:40:18 9.6 C 20 %
971 24-03-2020 17:50:17 9.3 C 20 %
972 24-03-2020 18:00:17 9 C 20 %
973 24-03-2020 18:10:17 8.6 C 20 %
974 24-03-2020 18:20:17 8.4 C 20 %
975 24-03-2020 18:30:17 7.6 C 20 %
Sensor: Nr:Datum:Temp:Feuchte:
Aussen-T/F 976 24-03-2020 18:40:18 6.4 C 20 %
977 24-03-2020 18:50:17 5.4 C 20 %
978 24-03-2020 19:00:18 4.9 C 20 %
979 24-03-2020 19:10:18 4.6 C 20 %
980 24-03-2020 19:20:18 4.5 C 20 %
981 24-03-2020 19:30:18 4.1 C 20 %
982 24-03-2020 19:40:18 3.9 C 20 %
983 24-03-2020 19:50:17 3.6 C 20 %
984 24-03-2020 20:00:18 3.6 C 20 %
985 24-03-2020 20:10:18 3.5 C 20 %
986 24-03-2020 20:20:17 3.4 C 20 %
987 24-03-2020 20:30:18 3.4 C 20 %
988 24-03-2020 20:40:18 2.9 C 20 %
989 24-03-2020 20:50:18 2.7 C 20 %
990 24-03-2020 21:00:18 2.7 C 20 %
991 24-03-2020 21:10:18 2.6 C 20 %
992 24-03-2020 21:20:17 2.3 C 20 %
993 24-03-2020 21:30:17 2.3 C 20 %
994 24-03-2020 21:40:17 2.2 C 20 %
995 24-03-2020 21:50:17 2.2 C 20 %
996 24-03-2020 22:00:18 1.7 C 20 %
997 24-03-2020 22:10:18 1.6 C 20 %
998 24-03-2020 22:20:17 1.6 C 20 %
999 24-03-2020 22:30:18 0.3 C 25 %
1000 24-03-2020 22:40:18 -0.2 C 30 %
Sensor: Nr:Datum:Temp:Feuchte:
Aussen-T/F 1001 24-03-2020 22:50:17 -0.7 C 30 %
1002 24-03-2020 23:00:18 -1.2 C 32 %
1003 24-03-2020 23:10:18 -1.1 C 31 %
1004 24-03-2020 23:20:17 -1.4 C 31 %
1005 24-03-2020 23:30:18 -1.7 C 30 %
1006 24-03-2020 23:40:18 -0.9 C 30 %
1007 24-03-2020 23:50:18 -1.2 C 30 %
Sensor: Nr:Datum:Temp:Feuchte:
G-T/H 1 18-03-2020 00:09:17 11.7 C 71 %
2 18-03-2020 00:19:17 11.7 C 71 %
3 18-03-2020 00:29:17 11.7 C 71 %
4 18-03-2020 00:39:17 11.8 C 71 %
5 18-03-2020 00:49:17 11.8 C 71 %
6 18-03-2020 00:59:17 11.7 C 71 %
7 18-03-2020 01:09:17 11.8 C 71 %
8 18-03-2020 01:19:17 11.7 C 71 %
9 18-03-2020 01:29:17 11.7 C 71 %
10 18-03-2020 01:39:17 11.7 C 71 %
11 18-03-2020 01:49:17 11.7 C 71 %
12 18-03-2020 01:59:17 11.7 C 70 %
13 18-03-2020 02:09:17 11.7 C 70 %
14 18-03-2020 02:19:17 11.6 C 70 %
15 18-03-2020 02:29:17 11.6 C 70 %
16 18-03-2020 02:39:17 11.7 C 70 %
17 18-03-2020 02:49:18 11.6 C 70 %
18 18-03-2020 02:59:18 11.6 C 70 %
19 18-03-2020 03:09:18 11.6 C 70 %
20 18-03-2020 03:19:17 11.6 C 70 %
21 18-03-2020 03:29:17 11.6 C 70 %
22 18-03-2020 03:39:17 11.6 C 70 %
23 18-03-2020 03:49:17 11.5 C 70 %
24 18-03-2020 03:59:17 11.5 C 70 %
25 18-03-2020 04:09:17 11.5 C 70 %
Sensor: Nr:Datum:Temp:Feuchte:
G-T/H 26 18-03-2020 04:19:18 11.5 C 70 %
27 18-03-2020 04:29:18 11.5 C 70 %
28 18-03-2020 04:39:18 11.5 C 69 %
29 18-03-2020 04:49:18 11.4 C 69 %
30 18-03-2020 04:59:18 11.4 C 69 %
31 18-03-2020 05:09:18 11.4 C 69 %
32 18-03-2020 05:19:18 11.4 C 69 %
33 18-03-2020 05:29:18 11.4 C 69 %
34 18-03-2020 05:39:18 11.3 C 69 %
35 18-03-2020 05:49:18 11.3 C 68 %
36 18-03-2020 05:59:18 11.3 C 68 %
37 18-03-2020 06:09:18 11.3 C 68 %
38 18-03-2020 06:19:17 11.2 C 68 %
39 18-03-2020 06:29:18 11.2 C 68 %
40 18-03-2020 06:39:18 11.2 C 68 %
41 18-03-2020 06:49:17 11.2 C 68 %
42 18-03-2020 06:59:18 11.2 C 68 %
43 18-03-2020 07:09:18 11.2 C 68 %
44 18-03-2020 07:19:17 11.1 C 68 %
45 18-03-2020 07:29:17 11.1 C 68 %
46 18-03-2020 07:39:17 11.1 C 68 %
47 18-03-2020 07:49:18 11.1 C 68 %
48 18-03-2020 07:59:18 11.1 C 68 %
49 18-03-2020 08:09:18 11.1 C 68 %
50 18-03-2020 08:19:18 11.1 C 68 %
Sensor: Nr:Datum:Temp:Feuchte:
G-T/H 51 18-03-2020 08:29:18 11 C 68 %
52 18-03-2020 08:39:17 11 C 68 %
53 18-03-2020 08:49:18 11 C 68 %
54 18-03-2020 08:59:18 11 C 69 %
55 18-03-2020 09:09:17 11 C 69 %
56 18-03-2020 09:19:17 11 C 69 %
57 18-03-2020 09:29:17 11 C 69 %
58 18-03-2020 09:39:17 11 C 69 %
59 18-03-2020 09:49:18 11 C 69 %
60 18-03-2020 09:59:18 11 C 69 %
61 18-03-2020 10:09:18 11 C 69 %
62 18-03-2020 10:19:18 11 C 69 %
63 18-03-2020 10:29:18 11 C 69 %
64 18-03-2020 10:39:18 11 C 70 %
65 18-03-2020 10:49:18 11 C 70 %
66 18-03-2020 10:59:18 11 C 70 %
67 18-03-2020 11:09:18 11 C 70 %
68 18-03-2020 11:19:18 11 C 70 %
69 18-03-2020 11:29:18 11 C 70 %
70 18-03-2020 11:39:18 11 C 70 %
71 18-03-2020 11:49:17 11 C 70 %
72 18-03-2020 11:59:17 11 C 70 %
73 18-03-2020 12:09:18 11 C 70 %
74 18-03-2020 12:19:17 11 C 70 %
75 18-03-2020 12:29:18 11.1 C 70 %
Sensor: Nr:Datum:Temp:Feuchte:
G-T/H 76 18-03-2020 12:39:18 11.1 C 70 %
77 18-03-2020 12:49:17 11.1 C 70 %
78 18-03-2020 12:59:17 11.1 C 70 %
79 18-03-2020 13:09:17 11.1 C 70 %
80 18-03-2020 13:19:17 11.1 C 70 %
81 18-03-2020 13:29:17 11.1 C 71 %
82 18-03-2020 13:39:18 11.2 C 71 %
83 18-03-2020 13:49:17 11.2 C 71 %
84 18-03-2020 13:59:17 11.2 C 71 %
85 18-03-2020 14:09:17 11.2 C 71 %
86 18-03-2020 14:19:17 11.2 C 71 %
87 18-03-2020 14:29:17 11.2 C 71 %
88 18-03-2020 14:39:18 11.3 C 71 %
89 18-03-2020 14:49:17 11.3 C 71 %
90 18-03-2020 14:59:17 11.3 C 71 %
91 18-03-2020 15:09:17 11.3 C 71 %
92 18-03-2020 15:19:18 11.3 C 71 %
93 18-03-2020 15:29:18 11.4 C 71 %
94 18-03-2020 15:39:18 11.4 C 71 %
95 18-03-2020 15:49:17 11.4 C 71 %
96 18-03-2020 15:59:17 11.4 C 71 %
97 18-03-2020 16:09:17 11.4 C 71 %
98 18-03-2020 16:19:17 11.4 C 71 %
99 18-03-2020 16:29:17 11.5 C 71 %
100 18-03-2020 16:39:17 11.5 C 71 %
Sensor: Nr:Datum:Temp:Feuchte:
G-T/H 101 18-03-2020 16:49:18 11.5 C 71 %
102 18-03-2020 16:59:18 11.5 C 71 %
103 18-03-2020 17:09:17 11.5 C 71 %
104 18-03-2020 17:19:17 11.5 C 71 %
105 18-03-2020 17:29:17 11.6 C 71 %
106 18-03-2020 17:39:18 11.6 C 71 %
107 18-03-2020 17:49:17 11.6 C 71 %
108 18-03-2020 17:59:17 11.7 C 71 %
109 18-03-2020 18:09:17 11.6 C 71 %
110 18-03-2020 18:19:17 11.7 C 72 %
111 18-03-2020 18:29:17 11.6 C 72 %
112 18-03-2020 18:39:17 11.7 C 72 %
113 18-03-2020 18:49:17 11.7 C 71 %
114 18-03-2020 18:59:17 11.7 C 71 %
115 18-03-2020 19:09:17 11.7 C 71 %
116 18-03-2020 19:19:18 11.7 C 71 %
117 18-03-2020 19:29:18 11.7 C 71 %
118 18-03-2020 19:39:18 11.7 C 72 %
119 18-03-2020 19:49:18 11.7 C 72 %
120 18-03-2020 19:59:18 11.7 C 72 %
121 18-03-2020 20:09:18 11.7 C 72 %
122 18-03-2020 20:19:17 11.8 C 72 %
123 18-03-2020 20:29:17 11.7 C 72 %
124 18-03-2020 20:39:18 11.7 C 72 %
125 18-03-2020 20:49:17 11.7 C 72 %
Sensor: Nr:Datum:Temp:Feuchte:
G-T/H 126 18-03-2020 20:59:17 11.8 C 72 %
127 18-03-2020 21:09:18 11.8 C 72 %
128 18-03-2020 21:19:17 11.8 C 72 %
129 18-03-2020 21:29:17 11.8 C 72 %
130 18-03-2020 21:39:17 11.8 C 72 %
131 18-03-2020 21:49:17 11.8 C 72 %
132 18-03-2020 21:59:17 11.8 C 72 %
133 18-03-2020 22:09:17 11.8 C 72 %
134 18-03-2020 22:19:17 11.8 C 72 %
135 18-03-2020 22:29:17 11.8 C 72 %
136 18-03-2020 22:39:17 11.8 C 72 %
137 18-03-2020 22:49:17 11.8 C 72 %
138 18-03-2020 22:59:17 11.8 C 72 %
139 18-03-2020 23:09:18 11.8 C 72 %
140 18-03-2020 23:19:17 11.8 C 72 %
141 18-03-2020 23:29:17 11.8 C 72 %
142 18-03-2020 23:39:18 11.8 C 72 %
143 18-03-2020 23:49:18 11.8 C 72 %
144 18-03-2020 23:59:18 11.8 C 72 %
145 19-03-2020 00:09:17 11.8 C 72 %
146 19-03-2020 00:19:18 11.8 C 72 %
147 19-03-2020 00:29:18 11.8 C 72 %
148 19-03-2020 00:39:18 11.9 C 72 %
149 19-03-2020 00:49:17 11.9 C 72 %
150 19-03-2020 00:59:17 11.8 C 72 %
Sensor: Nr:Datum:Temp:Feuchte:
G-T/H 151 19-03-2020 01:09:18 11.8 C 72 %
152 19-03-2020 01:19:17 11.8 C 72 %
153 19-03-2020 01:29:17 11.8 C 72 %
154 19-03-2020 01:39:17 11.8 C 72 %
155 19-03-2020 01:49:17 11.8 C 72 %
156 19-03-2020 01:59:17 11.8 C 72 %
157 19-03-2020 02:09:18 11.8 C 72 %
158 19-03-2020 02:19:17 11.8 C 72 %
159 19-03-2020 02:29:17 11.8 C 72 %
160 19-03-2020 02:39:17 11.8 C 72 %
161 19-03-2020 02:49:18 11.8 C 72 %
162 19-03-2020 02:59:18 11.8 C 72 %
163 19-03-2020 03:09:18 11.8 C 72 %
164 19-03-2020 03:19:18 11.8 C 72 %
165 19-03-2020 03:29:18 11.8 C 72 %
166 19-03-2020 03:39:17 11.8 C 72 %
167 19-03-2020 03:49:18 11.8 C 72 %
168 19-03-2020 03:59:18 11.8 C 72 %
169 19-03-2020 04:09:18 11.8 C 71 %
170 19-03-2020 04:19:17 11.8 C 71 %
171 19-03-2020 04:29:17 11.8 C 71 %
172 19-03-2020 04:39:17 11.8 C 71 %
173 19-03-2020 04:49:18 11.8 C 71 %
174 19-03-2020 04:59:18 11.8 C 71 %
175 19-03-2020 05:09:18 11.8 C 71 %
Sensor: Nr:Datum:Temp:Feuchte:
G-T/H 176 19-03-2020 05:19:18 11.8 C 71 %
177 19-03-2020 05:29:18 11.8 C 71 %
178 19-03-2020 05:39:18 11.8 C 71 %
179 19-03-2020 05:49:17 11.8 C 71 %
180 19-03-2020 05:59:18 11.8 C 71 %
181 19-03-2020 06:09:18 11.8 C 71 %
182 19-03-2020 06:19:17 11.8 C 71 %
183 19-03-2020 06:29:17 11.8 C 71 %
184 19-03-2020 06:39:17 11.8 C 71 %
185 19-03-2020 06:49:17 11.8 C 71 %
186 19-03-2020 06:59:17 11.8 C 71 %
187 19-03-2020 07:09:17 11.8 C 71 %
188 19-03-2020 07:19:17 11.8 C 71 %
189 19-03-2020 07:29:17 11.8 C 71 %
190 19-03-2020 07:39:18 11.8 C 71 %
191 19-03-2020 07:49:18 11.8 C 71 %
192 19-03-2020 07:59:18 11.8 C 71 %
193 19-03-2020 08:09:18 11.8 C 71 %
194 19-03-2020 08:19:17 11.8 C 71 %
195 19-03-2020 08:29:17 11.8 C 71 %
196 19-03-2020 08:39:17 11.8 C 71 %
197 19-03-2020 08:49:18 11.8 C 71 %
198 19-03-2020 08:59:18 11.8 C 71 %
199 19-03-2020 09:09:17 11.8 C 72 %
200 19-03-2020 09:19:17 11.8 C 72 %
Sensor: Nr:Datum:Temp:Feuchte:
G-T/H 201 19-03-2020 09:29:17 11.8 C 72 %
202 19-03-2020 09:39:18 11.8 C 72 %
203 19-03-2020 09:49:17 11.8 C 72 %
204 19-03-2020 09:59:17 11.8 C 72 %
205 19-03-2020 10:09:18 11.8 C 72 %
206 19-03-2020 10:19:18 11.8 C 72 %
207 19-03-2020 10:29:18 11.8 C 72 %
208 19-03-2020 10:39:17 11.8 C 72 %
209 19-03-2020 10:49:17 11.8 C 72 %
210 19-03-2020 10:59:17 11.8 C 72 %
211 19-03-2020 11:09:17 11.8 C 72 %
212 19-03-2020 11:19:17 11.9 C 72 %
213 19-03-2020 11:29:17 11.9 C 72 %
214 19-03-2020 11:39:17 11.9 C 72 %
215 19-03-2020 11:49:17 11.9 C 72 %
216 19-03-2020 11:59:17 11.9 C 72 %
217 19-03-2020 12:09:17 11.9 C 72 %
218 19-03-2020 12:19:17 11.9 C 72 %
219 19-03-2020 12:29:17 11.9 C 72 %
220 19-03-2020 12:39:18 11.9 C 72 %
221 19-03-2020 12:49:17 11.9 C 72 %
222 19-03-2020 12:59:17 11.9 C 72 %
223 19-03-2020 13:09:18 12 C 71 %
224 19-03-2020 13:19:18 12 C 71 %
225 19-03-2020 13:29:18 12 C 71 %
Sensor: Nr:Datum:Temp:Feuchte:
G-T/H 226 19-03-2020 13:39:18 12 C 71 %
227 19-03-2020 13:49:17 12 C 71 %
228 19-03-2020 13:59:17 12.1 C 71 %
229 19-03-2020 14:09:17 12.1 C 71 %
230 19-03-2020 14:19:17 12.1 C 71 %
231 19-03-2020 14:29:17 12.2 C 71 %
232 19-03-2020 14:39:17 12.6 C 69 %
233 19-03-2020 14:49:17 12.8 C 67 %
234 19-03-2020 14:59:17 13 C 64 %
235 19-03-2020 15:09:18 13.2 C 63 %
236 19-03-2020 15:19:18 13.2 C 62 %
237 19-03-2020 15:29:18 13.3 C 61 %
238 19-03-2020 15:39:18 13.4 C 61 %
239 19-03-2020 15:49:17 13.4 C 60 %
240 19-03-2020 15:59:18 13.5 C 60 %
241 19-03-2020 16:09:18 13.5 C 60 %
242 19-03-2020 16:20:17 13.6 C 59 %
243 19-03-2020 16:29:17 13.7 C 58 %
244 19-03-2020 16:39:17 13.8 C 57 %
245 19-03-2020 16:49:17 13.8 C 57 %
246 19-03-2020 16:59:17 13.9 C 56 %
247 19-03-2020 17:09:18 13.8 C 56 %
248 19-03-2020 17:19:18 13.8 C 56 %
249 19-03-2020 17:29:18 13.8 C 56 %
250 19-03-2020 17:39:18 13.8 C 56 %
Sensor: Nr:Datum:Temp:Feuchte:
G-T/H 251 19-03-2020 17:49:18 13.8 C 56 %
252 19-03-2020 17:59:18 13.9 C 57 %
253 19-03-2020 18:09:18 13.9 C 57 %
254 19-03-2020 18:20:17 13.9 C 58 %
255 19-03-2020 18:30:17 13.8 C 58 %
256 19-03-2020 18:40:17 13.7 C 59 %
257 19-03-2020 18:50:17 13.6 C 59 %
258 19-03-2020 18:59:18 13.5 C 60 %
259 19-03-2020 19:09:18 13.4 C 60 %
260 19-03-2020 19:20:17 13.2 C 60 %
261 19-03-2020 19:30:17 13.1 C 60 %
262 19-03-2020 19:40:17 12.9 C 61 %
263 19-03-2020 19:50:17 12.8 C 61 %
264 19-03-2020 19:59:17 12.8 C 61 %
265 19-03-2020 20:09:17 12.7 C 61 %
266 19-03-2020 20:29:17 12.7 C 61 %
267 19-03-2020 20:29:17 12.7 C 62 %
268 19-03-2020 20:39:17 12.7 C 62 %
269 19-03-2020 20:49:17 12.7 C 62 %
270 19-03-2020 20:59:17 12.7 C 62 %
271 19-03-2020 21:09:18 12.7 C 63 %
272 19-03-2020 21:20:17 12.8 C 63 %
273 19-03-2020 21:30:17 12.8 C 63 %
274 19-03-2020 21:40:17 12.8 C 63 %
275 19-03-2020 21:50:17 12.8 C 63 %
Sensor: Nr:Datum:Temp:Feuchte:
G-T/H 276 19-03-2020 21:59:18 12.8 C 64 %
277 19-03-2020 22:09:18 12.8 C 64 %
278 19-03-2020 22:19:18 12.8 C 64 %
279 19-03-2020 22:29:18 12.8 C 64 %
280 19-03-2020 22:39:18 12.8 C 64 %
281 19-03-2020 22:49:18 12.8 C 64 %
282 19-03-2020 22:59:18 12.8 C 65 %
283 19-03-2020 23:09:18 12.8 C 65 %
284 19-03-2020 23:20:17 12.8 C 65 %
285 19-03-2020 23:30:17 12.8 C 65 %
286 19-03-2020 23:40:17 12.8 C 65 %
287 19-03-2020 23:50:17 12.8 C 65 %
288 19-03-2020 23:59:18 12.8 C 65 %
289 20-03-2020 00:09:18 12.8 C 66 %
290 20-03-2020 00:19:18 12.8 C 66 %
291 20-03-2020 00:29:18 12.8 C 66 %
292 20-03-2020 00:39:18 12.8 C 66 %
293 20-03-2020 00:59:17 12.8 C 66 %
294 20-03-2020 01:00:18 12.8 C 66 %
295 20-03-2020 01:10:18 12.8 C 66 %
296 20-03-2020 01:20:17 12.8 C 66 %
297 20-03-2020 01:30:18 12.8 C 66 %
298 20-03-2020 01:40:18 12.8 C 66 %
299 20-03-2020 01:50:17 12.8 C 66 %
300 20-03-2020 02:00:18 12.8 C 66 %
Sensor: Nr:Datum:Temp:Feuchte:
G-T/H 301 20-03-2020 02:10:18 12.8 C 66 %
302 20-03-2020 02:20:17 12.8 C 67 %
303 20-03-2020 02:30:17 12.8 C 67 %
304 20-03-2020 02:40:17 12.7 C 67 %
305 20-03-2020 02:50:17 12.8 C 67 %
306 20-03-2020 03:00:17 12.7 C 67 %
307 20-03-2020 03:10:17 12.7 C 67 %
308 20-03-2020 03:20:17 12.7 C 67 %
309 20-03-2020 03:30:18 12.7 C 67 %
310 20-03-2020 03:40:18 12.7 C 67 %
311 20-03-2020 03:50:17 12.7 C 67 %
312 20-03-2020 04:00:18 12.7 C 67 %
313 20-03-2020 04:10:18 12.7 C 67 %
314 20-03-2020 04:20:18 12.7 C 67 %
315 20-03-2020 04:30:18 12.7 C 67 %
316 20-03-2020 04:40:18 12.7 C 67 %
317 20-03-2020 04:50:17 12.6 C 67 %
318 20-03-2020 05:00:18 12.6 C 67 %
319 20-03-2020 05:10:18 12.7 C 67 %
320 20-03-2020 05:20:17 12.6 C 67 %
321 20-03-2020 05:30:17 12.6 C 67 %
322 20-03-2020 05:40:17 12.6 C 67 %
323 20-03-2020 05:50:17 12.5 C 67 %
324 20-03-2020 06:00:17 12.5 C 67 %
325 20-03-2020 06:10:17 12.5 C 67 %
Sensor: Nr:Datum:Temp:Feuchte:
G-T/H 326 20-03-2020 06:20:17 12.5 C 67 %
327 20-03-2020 06:30:17 12.5 C 67 %
328 20-03-2020 06:40:17 12.5 C 67 %
329 20-03-2020 06:50:17 12.5 C 67 %
330 20-03-2020 07:00:17 12.5 C 67 %
331 20-03-2020 07:10:17 12.5 C 67 %
332 20-03-2020 07:20:17 12.4 C 67 %
333 20-03-2020 07:30:17 12.5 C 67 %
334 20-03-2020 07:40:17 12.4 C 67 %
335 20-03-2020 07:50:18 12.4 C 67 %
336 20-03-2020 08:00:17 12.4 C 67 %
337 20-03-2020 08:10:17 12.4 C 67 %
338 20-03-2020 08:20:17 12.4 C 67 %
339 20-03-2020 08:30:17 12.4 C 67 %
340 20-03-2020 08:40:17 12.4 C 67 %
341 20-03-2020 08:50:17 12.4 C 67 %
342 20-03-2020 09:00:17 12.4 C 67 %
343 20-03-2020 09:10:17 12.3 C 67 %
344 20-03-2020 09:20:17 12.4 C 67 %
345 20-03-2020 09:30:17 12.4 C 67 %
346 20-03-2020 09:40:17 12.4 C 68 %
347 20-03-2020 09:50:17 12.4 C 68 %
348 20-03-2020 10:00:18 12.3 C 68 %
349 20-03-2020 10:10:18 12.3 C 68 %
350 20-03-2020 10:20:18 12.3 C 68 %
Sensor: Nr:Datum:Temp:Feuchte:
G-T/H 351 20-03-2020 10:30:18 12.3 C 68 %
352 20-03-2020 10:40:18 12.3 C 68 %
353 20-03-2020 10:50:18 12.3 C 68 %
354 20-03-2020 11:00:17 12.3 C 68 %
355 20-03-2020 11:10:18 12.3 C 68 %
356 20-03-2020 11:20:18 12.3 C 68 %
357 20-03-2020 11:30:18 12.3 C 68 %
358 20-03-2020 11:40:18 12.3 C 68 %
359 20-03-2020 11:50:18 12.3 C 68 %
360 20-03-2020 12:00:17 12.3 C 68 %
361 20-03-2020 12:10:17 12.3 C 68 %
362 20-03-2020 12:20:17 12.3 C 68 %
363 20-03-2020 12:30:18 12.3 C 68 %
364 20-03-2020 12:40:18 12.3 C 68 %
365 20-03-2020 12:50:18 12.3 C 68 %
366 20-03-2020 13:00:18 12.3 C 68 %
367 20-03-2020 13:10:18 12.4 C 68 %
368 20-03-2020 13:20:18 12.4 C 69 %
369 20-03-2020 13:30:18 12.4 C 69 %
370 20-03-2020 13:40:18 12.4 C 69 %
371 20-03-2020 13:50:17 12.4 C 69 %
372 20-03-2020 14:00:17 12.4 C 69 %
373 20-03-2020 14:10:17 12.4 C 69 %
374 20-03-2020 14:20:17 12.4 C 69 %
375 20-03-2020 14:30:18 12.4 C 69 %
Sensor: Nr:Datum:Temp:Feuchte:
G-T/H 376 20-03-2020 14:40:18 12.4 C 69 %
377 20-03-2020 14:50:18 12.4 C 69 %
378 20-03-2020 15:00:17 12.4 C 69 %
379 20-03-2020 15:10:17 12.4 C 69 %
380 20-03-2020 15:20:17 12.5 C 69 %
381 20-03-2020 15:30:18 12.5 C 69 %
382 20-03-2020 15:40:18 12.5 C 69 %
383 20-03-2020 15:50:18 12.4 C 69 %
384 20-03-2020 16:00:17 12.5 C 69 %
385 20-03-2020 16:10:17 12.5 C 69 %
386 20-03-2020 16:20:17 12.5 C 69 %
387 20-03-2020 16:30:18 12.5 C 69 %
388 20-03-2020 16:40:18 12.5 C 69 %
389 20-03-2020 16:50:18 12.5 C 69 %
390 20-03-2020 17:00:18 12.6 C 69 %
391 20-03-2020 17:10:18 12.7 C 69 %
392 20-03-2020 17:20:18 12.8 C 69 %
393 20-03-2020 17:30:18 12.8 C 68 %
394 20-03-2020 17:40:18 12.7 C 68 %
395 20-03-2020 17:50:17 12.7 C 68 %
396 20-03-2020 18:00:17 12.6 C 68 %
397 20-03-2020 18:10:17 12.7 C 68 %
398 20-03-2020 18:20:17 12.6 C 68 %
399 20-03-2020 18:30:17 12.6 C 68 %
400 20-03-2020 18:40:17 12.6 C 68 %
Sensor: Nr:Datum:Temp:Feuchte:
G-T/H 401 20-03-2020 18:50:18 12.6 C 68 %
402 20-03-2020 19:00:17 12.6 C 68 %
403 20-03-2020 19:10:17 12.6 C 68 %
404 20-03-2020 19:20:17 12.6 C 68 %
405 20-03-2020 19:30:17 12.6 C 68 %
406 20-03-2020 19:40:17 12.6 C 68 %
407 20-03-2020 19:50:17 12.6 C 68 %
408 20-03-2020 20:00:17 12.6 C 68 %
409 20-03-2020 20:10:17 12.6 C 68 %
410 20-03-2020 20:20:17 12.6 C 68 %
411 20-03-2020 20:30:17 12.6 C 68 %
412 20-03-2020 20:40:17 12.6 C 68 %
413 20-03-2020 20:50:18 12.6 C 68 %
414 20-03-2020 21:00:18 12.6 C 68 %
415 20-03-2020 21:10:18 12.6 C 68 %
416 20-03-2020 21:20:17 12.6 C 68 %
417 20-03-2020 21:30:17 12.6 C 68 %
418 20-03-2020 21:40:17 12.5 C 68 %
419 20-03-2020 21:50:17 12.5 C 68 %
420 20-03-2020 22:00:17 12.5 C 67 %
421 20-03-2020 22:10:17 12.5 C 67 %
422 20-03-2020 22:20:18 12.5 C 67 %
423 20-03-2020 22:30:17 12.5 C 67 %
424 20-03-2020 22:40:18 12.5 C 67 %
425 20-03-2020 22:50:17 12.5 C 67 %
Sensor: Nr:Datum:Temp:Feuchte:
G-T/H 426 20-03-2020 23:00:18 12.5 C 67 %
427 20-03-2020 23:10:18 12.5 C 67 %
428 20-03-2020 23:20:17 12.5 C 67 %
429 20-03-2020 23:30:18 12.5 C 67 %
430 20-03-2020 23:40:18 12.5 C 67 %
431 20-03-2020 23:50:18 12.4 C 66 %
432 21-03-2020 00:00:17 12.5 C 66 %
433 21-03-2020 00:10:17 12.4 C 66 %
434 21-03-2020 00:20:17 12.5 C 66 %
435 21-03-2020 00:30:17 12.4 C 66 %
436 21-03-2020 00:40:17 12.4 C 66 %
437 21-03-2020 00:50:17 12.4 C 66 %
438 21-03-2020 01:00:17 12.4 C 66 %
439 21-03-2020 01:10:17 12.4 C 66 %
440 21-03-2020 01:20:17 12.4 C 66 %
441 21-03-2020 01:30:18 12.4 C 66 %
442 21-03-2020 01:40:18 12.4 C 66 %
443 21-03-2020 01:50:17 12.4 C 66 %
444 21-03-2020 02:00:18 12.3 C 66 %
445 21-03-2020 02:10:18 12.3 C 66 %
446 21-03-2020 02:20:17 12.3 C 66 %
447 21-03-2020 02:30:18 12.3 C 66 %
448 21-03-2020 02:40:18 12.3 C 66 %
449 21-03-2020 02:50:18 12.3 C 66 %
450 21-03-2020 03:00:17 12.3 C 66 %
Sensor: Nr:Datum:Temp:Feuchte:
G-T/H 451 21-03-2020 03:10:17 12.3 C 66 %
452 21-03-2020 03:20:17 12.2 C 66 %
453 21-03-2020 03:30:18 12.2 C 66 %
454 21-03-2020 03:40:18 12.2 C 66 %
455 21-03-2020 03:50:17 12.2 C 66 %
456 21-03-2020 04:00:18 12.2 C 66 %
457 21-03-2020 04:10:18 12.2 C 66 %
458 21-03-2020 04:20:17 12.2 C 66 %
459 21-03-2020 04:30:18 12.1 C 66 %
460 21-03-2020 04:40:18 12.1 C 66 %
461 21-03-2020 04:50:18 12.1 C 66 %
462 21-03-2020 05:00:18 12.1 C 65 %
463 21-03-2020 05:10:18 12 C 65 %
464 21-03-2020 05:20:18 12 C 65 %
465 21-03-2020 05:30:18 12 C 65 %
466 21-03-2020 05:40:18 12 C 65 %
467 21-03-2020 05:50:17 11.9 C 66 %
468 21-03-2020 06:00:18 11.9 C 66 %
469 21-03-2020 06:10:18 12 C 65 %
470 21-03-2020 06:20:17 11.9 C 66 %
471 21-03-2020 06:30:18 11.9 C 66 %
472 21-03-2020 06:40:18 11.9 C 67 %
473 21-03-2020 06:50:17 11.9 C 67 %
474 21-03-2020 07:00:17 11.9 C 67 %
475 21-03-2020 07:10:18 11.9 C 67 %
Sensor: Nr:Datum:Temp:Feuchte:
G-T/H 476 21-03-2020 07:20:18 11.8 C 67 %
477 21-03-2020 07:30:18 11.8 C 66 %
478 21-03-2020 07:40:18 11.8 C 66 %
479 21-03-2020 07:50:17 11.8 C 66 %
480 21-03-2020 08:00:18 11.7 C 66 %
481 21-03-2020 08:10:18 11.7 C 66 %
482 21-03-2020 08:20:17 11.7 C 67 %
483 21-03-2020 08:30:17 11.7 C 67 %
484 21-03-2020 08:40:17 11.7 C 67 %
485 21-03-2020 08:50:18 11.7 C 67 %
486 21-03-2020 09:00:18 11.7 C 67 %
487 21-03-2020 09:10:18 11.7 C 67 %
488 21-03-2020 09:20:18 11.7 C 67 %
489 21-03-2020 09:30:18 11.7 C 67 %
490 21-03-2020 09:40:18 11.6 C 67 %
491 21-03-2020 09:50:17 11.6 C 67 %
492 21-03-2020 10:00:17 11.6 C 67 %
493 21-03-2020 10:10:18 11.6 C 67 %
494 21-03-2020 10:20:18 11.6 C 67 %
495 21-03-2020 10:30:18 11.5 C 67 %
496 21-03-2020 10:40:18 11.5 C 67 %
497 21-03-2020 10:50:17 11.5 C 67 %
498 21-03-2020 11:00:17 11.6 C 67 %
499 21-03-2020 11:10:18 11.5 C 67 %
500 21-03-2020 11:20:18 11.5 C 67 %
Sensor: Nr:Datum:Temp:Feuchte:
G-T/H 501 21-03-2020 11:30:18 11.5 C 67 %
502 21-03-2020 11:40:18 11.5 C 67 %
503 21-03-2020 11:50:18 11.5 C 67 %
504 21-03-2020 12:00:18 11.6 C 67 %
505 21-03-2020 12:10:18 11.5 C 67 %
506 21-03-2020 12:20:17 11.5 C 66 %
507 21-03-2020 12:30:17 11.5 C 66 %
508 21-03-2020 12:40:17 11.5 C 66 %
509 21-03-2020 12:50:17 11.4 C 65 %
510 21-03-2020 13:00:17 11.4 C 65 %
511 21-03-2020 13:10:17 11.4 C 65 %
512 21-03-2020 13:20:18 11.4 C 64 %
513 21-03-2020 13:30:18 11.4 C 64 %
514 21-03-2020 13:40:18 11.4 C 64 %
515 21-03-2020 13:50:17 11.3 C 63 %
516 21-03-2020 14:00:18 11.3 C 63 %
517 21-03-2020 14:10:18 11.3 C 63 %
518 21-03-2020 14:20:18 11.3 C 63 %
519 21-03-2020 14:30:18 11.3 C 62 %
520 21-03-2020 14:40:18 11.3 C 62 %
521 21-03-2020 14:50:17 11.3 C 62 %
522 21-03-2020 15:00:18 11.3 C 62 %
523 21-03-2020 15:10:18 11.3 C 62 %
524 21-03-2020 15:20:17 11.2 C 61 %
525 21-03-2020 15:30:17 11.3 C 61 %
Sensor: Nr:Datum:Temp:Feuchte:
G-T/H 526 21-03-2020 15:40:17 11.3 C 61 %
527 21-03-2020 15:50:17 11.2 C 61 %
528 21-03-2020 16:00:18 11.2 C 60 %
529 21-03-2020 16:10:18 11.2 C 60 %
530 21-03-2020 16:20:17 11.2 C 60 %
531 21-03-2020 16:30:17 11.2 C 60 %
532 21-03-2020 16:40:17 11.2 C 60 %
533 21-03-2020 16:50:17 11.2 C 61 %
534 21-03-2020 17:00:17 11.2 C 61 %
535 21-03-2020 17:10:17 11.2 C 61 %
536 21-03-2020 17:20:17 11.2 C 61 %
537 21-03-2020 17:30:18 11.2 C 61 %
538 21-03-2020 17:40:18 11.2 C 60 %
539 21-03-2020 17:50:17 11.2 C 60 %
540 21-03-2020 18:00:17 11.2 C 60 %
541 21-03-2020 18:10:17 11.2 C 60 %
542 21-03-2020 18:20:17 11.1 C 60 %
543 21-03-2020 18:30:17 11.1 C 60 %
544 21-03-2020 18:40:17 11.1 C 60 %
545 21-03-2020 18:50:17 11.1 C 61 %
546 21-03-2020 19:00:17 11.2 C 61 %
547 21-03-2020 19:10:17 11.1 C 61 %
548 21-03-2020 19:20:17 11.1 C 61 %
549 21-03-2020 19:30:18 11.1 C 61 %
550 21-03-2020 19:40:18 11.1 C 61 %
Sensor: Nr:Datum:Temp:Feuchte:
G-T/H 551 21-03-2020 19:50:17 11.1 C 61 %
552 21-03-2020 20:00:18 11.1 C 61 %
553 21-03-2020 20:10:18 11 C 60 %
554 21-03-2020 20:20:18 11.1 C 60 %
555 21-03-2020 20:30:18 11 C 60 %
556 21-03-2020 20:40:18 11 C 60 %
557 21-03-2020 20:50:17 11 C 60 %
558 21-03-2020 21:00:18 11 C 60 %
559 21-03-2020 21:10:18 11 C 60 %
560 21-03-2020 21:20:18 11 C 60 %
561 21-03-2020 21:30:18 11 C 61 %
562 21-03-2020 21:40:18 11 C 61 %
563 21-03-2020 21:50:17 11 C 61 %
564 21-03-2020 22:00:17 10.9 C 62 %
565 21-03-2020 22:10:17 10.9 C 61 %
566 21-03-2020 22:20:17 10.8 C 61 %
567 21-03-2020 22:30:18 10.8 C 61 %
568 21-03-2020 22:40:18 10.8 C 61 %
569 21-03-2020 22:50:18 10.8 C 61 %
570 21-03-2020 23:00:18 10.8 C 61 %
571 21-03-2020 23:10:18 10.8 C 60 %
572 21-03-2020 23:20:18 10.8 C 61 %
573 21-03-2020 23:30:18 10.7 C 60 %
574 21-03-2020 23:40:18 10.7 C 60 %
575 21-03-2020 23:50:17 10.7 C 60 %
Sensor: Nr:Datum:Temp:Feuchte:
G-T/H 576 22-03-2020 00:00:18 10.7 C 60 %
577 22-03-2020 00:10:18 10.6 C 60 %
578 22-03-2020 00:20:17 10.6 C 60 %
579 22-03-2020 00:30:17 10.6 C 60 %
580 22-03-2020 00:40:17 10.5 C 60 %
581 22-03-2020 00:50:17 10.5 C 60 %
582 22-03-2020 01:00:18 10.5 C 59 %
583 22-03-2020 01:10:18 10.5 C 59 %
584 22-03-2020 01:20:18 10.4 C 59 %
585 22-03-2020 01:30:18 10.4 C 59 %
586 22-03-2020 01:40:18 10.4 C 59 %
587 22-03-2020 01:50:18 10.4 C 59 %
588 22-03-2020 02:00:18 10.4 C 59 %
589 22-03-2020 02:10:18 10.3 C 59 %
590 22-03-2020 02:20:17 10.3 C 58 %
591 22-03-2020 02:30:18 10.3 C 58 %
592 22-03-2020 02:40:18 10.2 C 58 %
593 22-03-2020 02:50:18 10.2 C 58 %
594 22-03-2020 03:00:18 10.2 C 58 %
595 22-03-2020 03:10:18 10.2 C 58 %
596 22-03-2020 03:20:18 10.1 C 58 %
597 22-03-2020 03:30:18 10.1 C 58 %
598 22-03-2020 03:40:18 10.1 C 58 %
599 22-03-2020 03:50:17 10.1 C 58 %
600 22-03-2020 04:00:17 10.1 C 58 %
Sensor: Nr:Datum:Temp:Feuchte:
G-T/H 601 22-03-2020 04:10:17 10 C 58 %
602 22-03-2020 04:20:17 10 C 58 %
603 22-03-2020 04:30:17 10 C 58 %
604 22-03-2020 04:40:17 10 C 59 %
605 22-03-2020 04:50:17 10 C 59 %
606 22-03-2020 05:00:18 10 C 59 %
607 22-03-2020 05:10:18 10 C 59 %
608 22-03-2020 05:20:17 9.9 C 60 %
609 22-03-2020 05:30:18 9.9 C 60 %
610 22-03-2020 05:40:18 9.9 C 61 %
611 22-03-2020 05:50:17 9.8 C 61 %
612 22-03-2020 06:00:17 9.9 C 61 %
613 22-03-2020 06:10:17 9.8 C 61 %
614 22-03-2020 06:20:17 9.8 C 61 %
615 22-03-2020 06:30:17 9.8 C 61 %
616 22-03-2020 06:40:17 9.8 C 61 %
617 22-03-2020 06:50:18 9.8 C 61 %
618 22-03-2020 07:00:18 9.8 C 61 %
619 22-03-2020 07:10:18 9.7 C 61 %
620 22-03-2020 07:20:18 9.7 C 61 %
621 22-03-2020 07:30:18 9.7 C 61 %
622 22-03-2020 07:40:18 9.7 C 61 %
623 22-03-2020 07:50:17 9.7 C 61 %
624 22-03-2020 08:00:18 9.7 C 61 %
625 22-03-2020 08:10:18 9.6 C 61 %
Sensor: Nr:Datum:Temp:Feuchte:
G-T/H 626 22-03-2020 08:20:18 9.6 C 61 %
627 22-03-2020 08:30:18 9.6 C 61 %
628 22-03-2020 08:40:18 9.6 C 61 %
629 22-03-2020 08:50:18 9.5 C 61 %
630 22-03-2020 09:00:18 9.5 C 61 %
631 22-03-2020 09:10:18 9.5 C 62 %
632 22-03-2020 09:20:18 9.5 C 62 %
633 22-03-2020 09:30:18 9.5 C 61 %
634 22-03-2020 09:40:18 9.5 C 61 %
635 22-03-2020 09:50:17 9.5 C 61 %
636 22-03-2020 10:00:18 9.4 C 61 %
637 22-03-2020 10:10:18 9.4 C 62 %
638 22-03-2020 10:20:18 9.4 C 62 %
639 22-03-2020 10:30:18 9.4 C 61 %
640 22-03-2020 10:40:18 9.4 C 61 %
641 22-03-2020 10:50:17 9.4 C 61 %
642 22-03-2020 11:00:18 9.4 C 61 %
643 22-03-2020 11:10:18 9.4 C 61 %
644 22-03-2020 11:20:17 9.3 C 61 %
645 22-03-2020 11:30:18 9.3 C 61 %
646 22-03-2020 11:40:18 9.3 C 61 %
647 22-03-2020 11:50:17 9.3 C 61 %
648 22-03-2020 12:00:18 9.4 C 61 %
649 22-03-2020 12:10:18 9.3 C 61 %
650 22-03-2020 12:20:18 9.3 C 61 %
Sensor: Nr:Datum:Temp:Feuchte:
G-T/H 651 22-03-2020 12:30:17 9.3 C 61 %
652 22-03-2020 12:40:17 9.3 C 61 %
653 22-03-2020 12:50:18 9.3 C 61 %
654 22-03-2020 13:00:18 9.3 C 61 %
655 22-03-2020 13:10:18 9.3 C 61 %
656 22-03-2020 13:20:17 9.3 C 61 %
657 22-03-2020 13:30:18 9.3 C 61 %
658 22-03-2020 13:40:18 9.3 C 61 %
659 22-03-2020 13:50:18 9.3 C 61 %
660 22-03-2020 14:00:17 9.3 C 61 %
661 22-03-2020 14:10:17 9.3 C 61 %
662 22-03-2020 14:20:17 9.3 C 61 %
663 22-03-2020 14:30:17 9.3 C 61 %
664 22-03-2020 14:40:17 9.3 C 61 %
665 22-03-2020 14:50:17 9.3 C 61 %
666 22-03-2020 15:00:18 9.3 C 61 %
667 22-03-2020 15:10:18 9.4 C 61 %
668 22-03-2020 15:20:17 9.4 C 61 %
669 22-03-2020 15:30:17 9.4 C 61 %
670 22-03-2020 15:40:17 9.4 C 61 %
671 22-03-2020 15:50:18 9.4 C 62 %
672 22-03-2020 16:00:18 9.4 C 62 %
673 22-03-2020 16:10:18 9.4 C 62 %
674 22-03-2020 16:20:18 9.4 C 62 %
675 22-03-2020 16:30:18 9.5 C 62 %
Sensor: Nr:Datum:Temp:Feuchte:
G-T/H 676 22-03-2020 16:40:18 9.5 C 62 %
677 22-03-2020 16:50:17 9.4 C 62 %
678 22-03-2020 17:00:17 9.5 C 62 %
679 22-03-2020 17:10:17 9.4 C 62 %
680 22-03-2020 17:20:17 9.5 C 62 %
681 22-03-2020 17:30:17 9.5 C 62 %
682 22-03-2020 17:40:17 9.5 C 62 %
683 22-03-2020 17:50:17 9.5 C 62 %
684 22-03-2020 18:00:18 9.5 C 62 %
685 22-03-2020 18:10:18 9.5 C 62 %
686 22-03-2020 18:20:17 9.5 C 62 %
687 22-03-2020 18:30:17 9.5 C 62 %
688 22-03-2020 18:40:17 9.5 C 63 %
689 22-03-2020 18:50:17 9.5 C 63 %
690 22-03-2020 19:00:17 9.5 C 63 %
691 22-03-2020 19:10:17 9.5 C 63 %
692 22-03-2020 19:20:17 9.5 C 63 %
693 22-03-2020 19:30:17 9.5 C 63 %
694 22-03-2020 19:40:17 9.5 C 63 %
695 22-03-2020 19:50:18 9.5 C 63 %
696 22-03-2020 20:00:18 9.5 C 63 %
697 22-03-2020 20:10:18 9.5 C 64 %
698 22-03-2020 20:20:17 9.5 C 64 %
699 22-03-2020 20:30:17 9.5 C 64 %
700 22-03-2020 20:40:17 9.5 C 64 %
Sensor: Nr:Datum:Temp:Feuchte:
G-T/H 701 22-03-2020 20:50:17 9.5 C 64 %
702 22-03-2020 21:00:17 9.5 C 64 %
703 22-03-2020 21:10:17 9.5 C 64 %
704 22-03-2020 21:20:17 9.5 C 64 %
705 22-03-2020 21:30:17 9.5 C 64 %
706 22-03-2020 21:40:17 9.5 C 64 %
707 22-03-2020 21:50:18 9.5 C 64 %
708 22-03-2020 22:00:18 9.5 C 64 %
709 22-03-2020 22:10:18 9.5 C 64 %
710 22-03-2020 22:20:17 9.5 C 64 %
711 22-03-2020 22:30:17 9.5 C 64 %
712 22-03-2020 22:40:17 9.5 C 64 %
713 22-03-2020 22:50:17 9.5 C 64 %
714 22-03-2020 23:00:17 9.5 C 64 %
715 22-03-2020 23:10:17 9.4 C 64 %
716 22-03-2020 23:20:17 9.4 C 64 %
717 22-03-2020 23:30:18 9.4 C 64 %
718 22-03-2020 23:40:18 9.4 C 64 %
719 22-03-2020 23:50:18 9.4 C 63 %
720 23-03-2020 00:00:18 9.4 C 63 %
721 23-03-2020 00:10:18 9.4 C 63 %
722 23-03-2020 00:20:17 9.4 C 63 %
723 23-03-2020 00:30:17 9.4 C 63 %
724 23-03-2020 00:40:17 9.3 C 63 %
725 23-03-2020 00:50:18 9.3 C 63 %
Sensor: Nr:Datum:Temp:Feuchte:
G-T/H 726 23-03-2020 01:00:17 9.3 C 63 %
727 23-03-2020 01:10:17 9.3 C 63 %
728 23-03-2020 01:20:17 9.3 C 63 %
729 23-03-2020 01:30:18 9.3 C 63 %
730 23-03-2020 01:40:18 9.2 C 63 %
731 23-03-2020 01:50:18 9.2 C 63 %
732 23-03-2020 02:00:18 9.2 C 63 %
733 23-03-2020 02:10:18 9.2 C 63 %
734 23-03-2020 02:20:17 9.2 C 63 %
735 23-03-2020 02:30:17 9.2 C 63 %
736 23-03-2020 02:40:17 9.1 C 63 %
737 23-03-2020 02:50:17 9.1 C 63 %
738 23-03-2020 03:00:17 9.1 C 63 %
739 23-03-2020 03:10:18 9.1 C 63 %
740 23-03-2020 03:20:18 9.1 C 63 %
741 23-03-2020 03:30:18 9.1 C 63 %
742 23-03-2020 03:40:18 9.1 C 63 %
743 23-03-2020 03:50:18 9 C 62 %
744 23-03-2020 04:00:18 9 C 62 %
745 23-03-2020 04:10:18 9 C 62 %
746 23-03-2020 04:20:17 9 C 62 %
747 23-03-2020 04:30:17 9 C 62 %
748 23-03-2020 04:40:17 9 C 62 %
749 23-03-2020 04:50:17 8.9 C 63 %
750 23-03-2020 05:00:18 8.9 C 63 %
Sensor: Nr:Datum:Temp:Feuchte:
G-T/H 751 23-03-2020 05:10:18 8.9 C 63 %
752 23-03-2020 05:20:17 8.9 C 63 %
753 23-03-2020 05:30:18 8.9 C 63 %
754 23-03-2020 05:40:18 8.8 C 63 %
755 23-03-2020 05:50:17 8.8 C 63 %
756 23-03-2020 06:00:18 8.8 C 63 %
757 23-03-2020 06:10:18 8.8 C 63 %
758 23-03-2020 06:20:17 8.8 C 63 %
759 23-03-2020 06:30:18 8.7 C 63 %
760 23-03-2020 06:40:18 8.7 C 63 %
761 23-03-2020 06:50:18 8.7 C 63 %
762 23-03-2020 07:00:18 8.7 C 62 %
763 23-03-2020 07:10:18 8.6 C 62 %
764 23-03-2020 07:20:18 8.6 C 62 %
765 23-03-2020 07:30:18 8.6 C 62 %
766 23-03-2020 07:40:18 8.6 C 62 %
767 23-03-2020 07:50:18 8.6 C 62 %
768 23-03-2020 08:00:18 8.6 C 62 %
769 23-03-2020 08:10:18 8.5 C 62 %
770 23-03-2020 08:20:17 8.5 C 62 %
771 23-03-2020 08:30:18 8.5 C 62 %
772 23-03-2020 08:40:18 8.5 C 62 %
773 23-03-2020 08:50:18 8.5 C 62 %
774 23-03-2020 09:00:18 8.5 C 62 %
775 23-03-2020 09:10:18 8.5 C 62 %
Sensor: Nr:Datum:Temp:Feuchte:
G-T/H 776 23-03-2020 09:20:18 8.5 C 62 %
777 23-03-2020 09:30:17 8.4 C 62 %
778 23-03-2020 09:40:17 8.4 C 62 %
779 23-03-2020 09:50:18 8.4 C 62 %
780 23-03-2020 10:00:18 8.4 C 62 %
781 23-03-2020 10:10:18 8.4 C 62 %
782 23-03-2020 10:20:18 8.4 C 62 %
783 23-03-2020 10:30:17 8.4 C 62 %
784 23-03-2020 10:40:17 8.4 C 62 %
785 23-03-2020 10:50:17 8.4 C 62 %
786 23-03-2020 11:00:17 8.4 C 62 %
787 23-03-2020 11:10:17 8.4 C 62 %
788 23-03-2020 11:20:17 8.4 C 62 %
789 23-03-2020 11:30:18 8.4 C 62 %
790 23-03-2020 11:40:18 8.4 C 62 %
791 23-03-2020 11:50:17 8.4 C 62 %
792 23-03-2020 12:00:18 8.4 C 62 %
793 23-03-2020 12:10:18 8.4 C 62 %
794 23-03-2020 12:20:18 8.4 C 62 %
795 23-03-2020 12:30:18 8.4 C 62 %
796 23-03-2020 12:40:18 8.4 C 62 %
797 23-03-2020 12:50:18 8.4 C 62 %
798 23-03-2020 13:00:17 8.4 C 62 %
799 23-03-2020 13:10:17 8.4 C 62 %
800 23-03-2020 13:20:17 8.4 C 62 %
Sensor: Nr:Datum:Temp:Feuchte:
G-T/H 801 23-03-2020 13:30:17 8.4 C 62 %
802 23-03-2020 13:40:17 8.4 C 62 %
803 23-03-2020 13:50:17 8.4 C 62 %
804 23-03-2020 14:00:18 8.4 C 62 %
805 23-03-2020 14:10:18 8.4 C 62 %
806 23-03-2020 14:20:18 8.4 C 62 %
807 23-03-2020 14:30:18 8.4 C 62 %
808 23-03-2020 14:40:18 8.4 C 63 %
809 23-03-2020 14:50:18 8.4 C 63 %
810 23-03-2020 15:00:18 8.4 C 63 %
811 23-03-2020 15:10:18 8.4 C 63 %
812 23-03-2020 15:20:17 8.4 C 63 %
813 23-03-2020 15:30:17 8.5 C 63 %
814 23-03-2020 15:40:17 8.5 C 63 %
815 23-03-2020 15:50:17 8.5 C 63 %
816 23-03-2020 16:00:17 8.5 C 63 %
817 23-03-2020 16:10:17 8.5 C 63 %
818 23-03-2020 16:20:17 8.5 C 63 %
819 23-03-2020 16:30:18 8.5 C 63 %
820 23-03-2020 16:40:18 8.6 C 63 %
821 23-03-2020 16:50:17 8.5 C 63 %
822 23-03-2020 17:00:18 8.5 C 63 %
823 23-03-2020 17:10:18 8.5 C 63 %
824 23-03-2020 17:20:18 8.6 C 63 %
825 23-03-2020 17:30:18 8.6 C 63 %
Sensor: Nr:Datum:Temp:Feuchte:
G-T/H 826 23-03-2020 17:40:18 8.6 C 63 %
827 23-03-2020 17:50:17 8.6 C 63 %
828 23-03-2020 18:00:18 8.6 C 63 %
829 23-03-2020 18:10:18 8.6 C 64 %
830 23-03-2020 18:20:17 8.6 C 64 %
831 23-03-2020 18:30:18 8.6 C 64 %
832 23-03-2020 18:40:18 8.6 C 64 %
833 23-03-2020 18:50:18 8.6 C 64 %
834 23-03-2020 19:00:18 8.6 C 64 %
835 23-03-2020 19:10:18 8.6 C 64 %
836 23-03-2020 19:20:17 8.6 C 64 %
837 23-03-2020 19:30:18 8.6 C 64 %
838 23-03-2020 19:40:18 8.6 C 64 %
839 23-03-2020 19:50:18 8.6 C 64 %
840 23-03-2020 20:00:17 8.6 C 64 %
841 23-03-2020 20:10:17 8.6 C 64 %
842 23-03-2020 20:20:17 8.6 C 64 %
843 23-03-2020 20:30:18 8.6 C 64 %
844 23-03-2020 20:40:18 8.6 C 64 %
845 23-03-2020 20:50:18 8.6 C 64 %
846 23-03-2020 21:00:18 8.6 C 64 %
847 23-03-2020 21:10:18 8.6 C 64 %
848 23-03-2020 21:20:17 8.6 C 64 %
849 23-03-2020 21:30:18 8.6 C 64 %
850 23-03-2020 21:40:18 8.6 C 64 %
Sensor: Nr:Datum:Temp:Feuchte:
G-T/H 851 23-03-2020 21:50:18 8.6 C 64 %
852 23-03-2020 22:00:17 8.6 C 64 %
853 23-03-2020 22:10:18 8.6 C 64 %
854 23-03-2020 22:20:18 8.6 C 64 %
855 23-03-2020 22:30:18 8.6 C 64 %
856 23-03-2020 22:40:18 8.6 C 64 %
857 23-03-2020 22:50:18 8.6 C 64 %
858 23-03-2020 23:00:18 8.6 C 64 %
859 23-03-2020 23:10:18 8.6 C 64 %
860 23-03-2020 23:20:17 8.6 C 64 %
861 23-03-2020 23:30:17 8.6 C 64 %
862 23-03-2020 23:40:17 8.6 C 64 %
863 23-03-2020 23:50:18 8.5 C 64 %
864 24-03-2020 00:00:18 8.5 C 64 %
865 24-03-2020 00:10:18 8.5 C 64 %
866 24-03-2020 00:20:17 8.5 C 64 %
867 24-03-2020 00:30:18 8.5 C 64 %
868 24-03-2020 00:40:18 8.5 C 64 %
869 24-03-2020 00:50:18 8.5 C 64 %
870 24-03-2020 01:00:18 8.5 C 64 %
871 24-03-2020 01:10:18 8.5 C 64 %
872 24-03-2020 01:20:18 8.4 C 64 %
873 24-03-2020 01:30:18 8.4 C 64 %
874 24-03-2020 01:40:18 8.4 C 64 %
875 24-03-2020 01:50:18 8.4 C 64 %
Sensor: Nr:Datum:Temp:Feuchte:
G-T/H 876 24-03-2020 02:00:18 8.4 C 64 %
877 24-03-2020 02:10:18 8.4 C 63 %
878 24-03-2020 02:20:17 8.4 C 63 %
879 24-03-2020 02:30:17 8.4 C 63 %
880 24-03-2020 02:40:17 8.3 C 63 %
881 24-03-2020 02:50:17 8.3 C 63 %
882 24-03-2020 03:00:17 8.3 C 63 %
883 24-03-2020 03:10:17 8.2 C 63 %
884 24-03-2020 03:20:17 8.3 C 63 %
885 24-03-2020 03:30:17 8.3 C 63 %
886 24-03-2020 03:40:17 8.3 C 63 %
887 24-03-2020 03:50:17 8.2 C 63 %
888 24-03-2020 04:00:18 8.2 C 63 %
889 24-03-2020 04:10:18 8.2 C 63 %
890 24-03-2020 04:20:18 8.2 C 63 %
891 24-03-2020 04:30:18 8.1 C 63 %
892 24-03-2020 04:40:18 8.1 C 63 %
893 24-03-2020 04:50:17 8.1 C 63 %
894 24-03-2020 05:00:17 8.1 C 63 %
895 24-03-2020 05:10:17 8.1 C 63 %
896 24-03-2020 05:20:17 8.1 C 63 %
897 24-03-2020 05:30:18 8.1 C 63 %
898 24-03-2020 05:40:18 8 C 63 %
899 24-03-2020 05:50:18 8 C 63 %
900 24-03-2020 06:00:17 8 C 63 %
Sensor: Nr:Datum:Temp:Feuchte:
G-T/H 901 24-03-2020 06:10:18 8 C 63 %
902 24-03-2020 06:20:17 8 C 62 %
903 24-03-2020 06:30:18 7.9 C 63 %
904 24-03-2020 06:40:18 7.9 C 63 %
905 24-03-2020 06:50:18 8 C 62 %
906 24-03-2020 07:00:18 7.9 C 63 %
907 24-03-2020 07:10:18 7.9 C 63 %
908 24-03-2020 07:20:18 7.9 C 63 %
909 24-03-2020 07:30:18 7.9 C 63 %
910 24-03-2020 07:40:18 7.9 C 63 %
911 24-03-2020 07:50:17 7.8 C 63 %
912 24-03-2020 08:00:17 7.8 C 63 %
913 24-03-2020 08:10:17 7.8 C 63 %
914 24-03-2020 08:20:17 7.8 C 63 %
915 24-03-2020 08:30:17 7.8 C 63 %
916 24-03-2020 08:40:17 7.8 C 63 %
917 24-03-2020 08:50:17 7.8 C 63 %
918 24-03-2020 09:00:17 7.8 C 63 %
919 24-03-2020 09:10:17 7.8 C 63 %
920 24-03-2020 09:20:17 7.8 C 63 %
921 24-03-2020 09:30:17 7.8 C 63 %
922 24-03-2020 09:40:17 7.8 C 63 %
923 24-03-2020 09:50:18 7.8 C 63 %
924 24-03-2020 10:00:18 7.8 C 64 %
925 24-03-2020 10:10:18 7.8 C 64 %
Sensor: Nr:Datum:Temp:Feuchte:
G-T/H 926 24-03-2020 10:20:17 7.8 C 64 %
927 24-03-2020 10:30:17 7.7 C 64 %
928 24-03-2020 10:40:17 7.7 C 64 %
929 24-03-2020 10:50:17 7.7 C 64 %
930 24-03-2020 11:00:18 7.7 C 64 %
931 24-03-2020 11:10:18 7.8 C 64 %
932 24-03-2020 11:20:17 7.7 C 64 %
933 24-03-2020 11:30:17 7.7 C 64 %
934 24-03-2020 11:40:17 7.7 C 64 %
935 24-03-2020 11:50:18 7.7 C 64 %
936 24-03-2020 12:00:18 7.7 C 64 %
937 24-03-2020 12:10:18 7.7 C 64 %
938 24-03-2020 12:20:17 7.7 C 64 %
939 24-03-2020 12:30:17 7.8 C 64 %
940 24-03-2020 12:40:17 7.8 C 64 %
941 24-03-2020 12:50:17 7.8 C 64 %
942 24-03-2020 13:00:18 7.8 C 65 %
943 24-03-2020 13:10:18 7.8 C 65 %
944 24-03-2020 13:20:17 7.8 C 64 %
945 24-03-2020 13:30:17 7.8 C 64 %
946 24-03-2020 13:40:17 7.8 C 64 %
947 24-03-2020 13:50:18 7.8 C 64 %
948 24-03-2020 14:00:17 7.8 C 64 %
949 24-03-2020 14:10:17 7.8 C 65 %
950 24-03-2020 14:20:17 7.8 C 65 %
Sensor: Nr:Datum:Temp:Feuchte:
G-T/H 951 24-03-2020 14:30:17 7.8 C 65 %
952 24-03-2020 14:40:17 7.9 C 64 %
953 24-03-2020 14:50:18 7.9 C 64 %
954 24-03-2020 15:00:18 7.8 C 64 %
955 24-03-2020 15:10:18 7.9 C 64 %
956 24-03-2020 15:20:18 7.9 C 64 %
957 24-03-2020 15:30:18 7.9 C 64 %
958 24-03-2020 15:40:18 7.9 C 64 %
959 24-03-2020 15:50:18 7.9 C 64 %
960 24-03-2020 16:00:18 7.9 C 64 %
961 24-03-2020 16:10:18 7.9 C 64 %
962 24-03-2020 16:20:18 7.9 C 64 %
963 24-03-2020 16:30:18 7.9 C 64 %
964 24-03-2020 16:40:18 7.9 C 64 %
965 24-03-2020 16:50:18 7.9 C 64 %
966 24-03-2020 17:00:18 8 C 63 %
967 24-03-2020 17:10:18 8 C 63 %
968 24-03-2020 17:20:18 8 C 63 %
969 24-03-2020 17:30:18 8 C 64 %
970 24-03-2020 17:40:18 8 C 64 %
971 24-03-2020 17:50:17 8.1 C 64 %
972 24-03-2020 18:00:17 8.1 C 64 %
973 24-03-2020 18:10:17 8.1 C 64 %
974 24-03-2020 18:20:17 8.1 C 64 %
975 24-03-2020 18:30:17 8.1 C 64 %
Sensor: Nr:Datum:Temp:Feuchte:
G-T/H 976 24-03-2020 18:40:18 8.2 C 65 %
977 24-03-2020 18:50:17 8.1 C 65 %
978 24-03-2020 19:00:18 8.2 C 65 %
979 24-03-2020 19:10:18 8.2 C 65 %
980 24-03-2020 19:20:18 8.1 C 65 %
981 24-03-2020 19:30:18 8.1 C 65 %
982 24-03-2020 19:40:18 8.2 C 65 %
983 24-03-2020 19:50:17 8.2 C 65 %
984 24-03-2020 20:00:18 8.2 C 65 %
985 24-03-2020 20:10:18 8.2 C 65 %
986 24-03-2020 20:20:17 8.2 C 65 %
987 24-03-2020 20:30:18 8.2 C 65 %
988 24-03-2020 20:40:18 8.2 C 65 %
989 24-03-2020 20:50:18 8.2 C 65 %
990 24-03-2020 21:00:18 8.2 C 65 %
991 24-03-2020 21:10:18 8.2 C 65 %
992 24-03-2020 21:20:17 8.2 C 65 %
993 24-03-2020 21:30:17 8.2 C 65 %
994 24-03-2020 21:40:17 8.2 C 65 %
995 24-03-2020 21:50:17 8.2 C 65 %
996 24-03-2020 22:00:18 8.2 C 65 %
997 24-03-2020 22:10:18 8.2 C 65 %
998 24-03-2020 22:20:17 8.2 C 65 %
999 24-03-2020 22:30:18 8.2 C 65 %
1000 24-03-2020 22:40:18 8.2 C 65 %
Sensor: Nr:Datum:Temp:Feuchte:
G-T/H 1001 24-03-2020 22:50:17 8.2 C 65 %
1002 24-03-2020 23:00:18 8.2 C 65 %
1003 24-03-2020 23:10:18 8.2 C 64 %
1004 24-03-2020 23:20:17 8.2 C 64 %
1005 24-03-2020 23:30:18 8.2 C 64 %
1006 24-03-2020 23:40:18 8.2 C 64 %
1007 24-03-2020 23:50:18 8.2 C 64 %

Legende:
   Min
   Max


Maximal/Minimal-Werte vom 18.03.2020 - 24.03.2020

Sensor Min Max Avg
Temp
(Aussen-T/F)
-4.7 °C
24-03-2020  06:00:17
25.8 °C
19-03-2020  13:19:18
7.02 °C
Feuchte
(Aussen-T/F)
20 %
18-03-2020  12:59:17
48 %
18-03-2020  05:09:18
31.79 %
Temp
(G-T/H)
7.7 °C
24-03-2020  10:30:17
13.9 °C
19-03-2020  16:59:17
10.61 °C
Feuchte
(G-T/H)
56 %
19-03-2020  16:59:17
72 %
18-03-2020  18:19:17
65.32 %

Die Daten stammen von einer Davis Vantage Pro 2 Wetter-Station und werden unter Linux mit der Software wview2wettercgi und aufbereitet. Alle Angaben erfolgen ohne Gewähr für ihre Vollständigkeit oder Richtigkeit.
Kontakt: Rainer Krienke krienke@uni-koblenz.de . Meine Webseiten an der Uni Koblenz oder privat.
Version: $Revision: 0.78 $